DO1TOB-60 Weather Reports


time (UTC)temp
C
wind
direction
speed
KPH
gust
KPH
rain 1hr
cm
rain 24hr
cm
rain mn
cm
humidity
%
barometer
mb
20260507111347 8 339 6.4 6.4 0.00 0.05 0.20 98 1015.8
20260507111247 8 315 6.4 6.4 0.00 0.05 0.20 98 1015.8
20260507111146 8 332 4.8 6.4 0.00 0.05 0.20 98 1015.8
20260507111046 8 298 8.0 9.7 0.00 0.05 0.20 98 1015.7
20260507110946 8 340 8.0 8.0 0.00 0.05 0.20 98 1015.7
20260507110847 8 327 3.2 4.8 0.00 0.05 0.18 98 1015.7
20260507110746 8 325 6.4 6.4 0.00 0.05 0.18 98 1015.7
20260507110646 8 327 8.0 9.7 0.00 0.05 0.18 98 1015.7
20260507110547 8 311 6.4 6.4 0.00 0.05 0.18 98 1015.7
20260507110446 8 325 8.0 9.7 0.00 0.05 0.18 98 1015.7
20260507110347 8 315 4.8 6.4 0.00 0.05 0.18 98 1015.7
20260507110247 8 306 4.8 4.8 0.00 0.05 0.18 98 1015.7
20260507110147 8 329 8.0 8.0 0.00 0.05 0.18 98 1015.7
20260507110046 8 320 6.4 6.4 0.00 0.05 0.18 98 1015.7
20260507105947 8 315 6.4 6.4 0.00 0.05 0.18 98 1015.7
20260507105846 8 322 9.7 9.7 0.00 0.05 0.18 98 1015.7
20260507105747 8 246 6.4 8.0 0.00 0.05 0.18 98 1015.7
20260507105646 8 292 6.4 6.4 0.00 0.05 0.18 98 1015.7
20260507105546 8 313 4.8 4.8 0.00 0.05 0.18 98 1015.7
20260507105448 8 323 8.0 8.0 0.00 0.05 0.18 98 1015.7
20260507105346 8 0.0 0.0 0.00 0.05 0.18 98 1015.7
20260507105247 8 275 3.2 3.2 0.00 0.05 0.18 98 1015.6
20260507105146 8 327 1.6 1.6 0.00 0.05 0.18 98 1015.7
20260507105047 8 310 4.8 6.4 0.00 0.05 0.18 98 1015.6
20260507104947 8 306 3.2 3.2 0.00 0.05 0.18 98 1015.6
20260507104847 8 312 3.2 3.2 0.00 0.05 0.18 98 1015.6
20260507104747 8 0.0 0.0 0.00 0.05 0.18 99 1015.6
20260507104646 8 324 3.2 3.2 0.00 0.05 0.18 98 1015.6
20260507104546 8 334 8.0 9.7 0.00 0.05 0.18 98 1015.6
20260507104446 8 299 3.2 3.2 0.00 0.05 0.18 98 1015.6
20260507104347 8 314 8.0 8.0 0.00 0.05 0.18 99 1015.6
20260507104246 8 321 6.4 6.4 0.00 0.05 0.18 99 1015.6
20260507104146 8 320 3.2 6.4 0.00 0.05 0.18 99 1015.6
20260507104046 8 321 4.8 8.0 0.00 0.05 0.18 99 1015.6
20260507103947 8 279 8.0 8.0 0.00 0.05 0.18 99 1015.6
20260507103846 8 302 6.4 9.7 0.00 0.05 0.18 99 1015.6
20260507103746 8 315 6.4 6.4 0.00 0.05 0.18 99 1015.6
20260507103646 8 314 6.4 6.4 0.00 0.05 0.18 99 1015.6
20260507103546 8 326 8.0 8.0 0.00 0.05 0.18 99 1015.5
20260507103446 8 318 8.0 8.0 0.00 0.05 0.18 99 1015.5
20260507103346 8 315 4.8 9.7 0.00 0.05 0.18 99 1015.5
20260507103248 8 327 6.4 8.0 0.00 0.05 0.18 98 1015.5
20260507103147 8 290 8.0 8.0 0.00 0.05 0.18 98 1015.5
20260507103046 8 311 4.8 4.8 0.00 0.05 0.18 98 1015.5
20260507102947 8 321 11.3 14.5 0.00 0.05 0.18 98 1015.5
20260507102847 8 318 12.9 12.9 0.00 0.05 0.18 98 1015.5
20260507102746 8 308 6.4 6.4 0.00 0.05 0.18 98 1015.5
20260507102646 8 310 4.8 4.8 0.00 0.05 0.18 98 1015.5
20260507102546 8 313 3.2 4.8 0.00 0.05 0.18 98 1015.5
20260507102446 8 328 4.8 4.8 0.00 0.05 0.18 98 1015.4
20260507102346 8 316 6.4 6.4 0.00 0.05 0.18 98 1015.5
20260507102246 8 317 4.8 4.8 0.00 0.05 0.18 98 1015.5
20260507102147 8 0.0 3.2 0.00 0.05 0.18 98 1015.5
20260507102047 8 0.0 0.0 0.00 0.05 0.18 98 1015.4
20260507101946 8 321 1.6 3.2 0.00 0.05 0.18 99 1015.4
20260507101846 8 306 1.6 3.2 0.00 0.05 0.18 99 1015.4
20260507101747 8 309 4.8 4.8 0.00 0.05 0.18 98 1015.4
20260507101647 7 305 9.7 11.3 0.00 0.05 0.18 98 1015.4
20260507101546 7 309 11.3 11.3 0.00 0.05 0.18 98 1015.4
20260507101446 7 296 4.8 4.8 0.00 0.05 0.18 98 1015.4
20260507101347 7 284 1.6 4.8 0.00 0.05 0.18 98 1015.4
20260507101246 7 321 3.2 4.8 0.00 0.05 0.18 98 1015.4
20260507101146 7 312 6.4 8.0 0.00 0.05 0.18 98 1015.4
20260507101047 7 311 4.8 4.8 0.00 0.05 0.18 98 1015.4
20260507100946 7 312 8.0 9.7 0.00 0.05 0.18 98 1015.3
20260507100847 7 327 4.8 4.8 0.00 0.05 0.18 98 1015.3
20260507100746 7 291 8.0 8.0 0.00 0.05 0.18 98 1015.3
20260507100647 7 311 3.2 3.2 0.00 0.05 0.18 98 1015.4
20260507100546 7 309 6.4 9.7 0.00 0.05 0.18 98 1015.3
20260507100446 7 314 6.4 6.4 0.00 0.05 0.18 98 1015.3
20260507100347 7 303 4.8 4.8 0.00 0.05 0.15 98 1015.3
20260507100236 7 312 8.0 8.0 0.00 0.05 0.15 98 1015.3
20260507100122 7 267 1.6 1.6 0.00 0.05 0.15 98 1015.3
20260507100022 7 326 8.0 9.7 0.00 0.05 0.15 98 1015.3
20260507095923 7 322 6.4 8.0 0.00 0.05 0.15 98 1015.3
20260507095822 7 306 11.3 12.9 0.00 0.05 0.15 98 1015.2
20260507095723 7 336 6.4 8.0 0.00 0.05 0.15 98 1015.3
20260507095622 7 322 4.8 6.4 0.03 0.05 0.15 98 1015.3
20260507095512 7 329 6.4 6.4 0.03 0.05 0.15 98 1015.3
20260507095412 7 331 8.0 9.7 0.03 0.05 0.15 98 1015.2
20260507095312 7 316 3.2 3.2 0.03 0.05 0.15 98 1015.2
20260507095213 7 314 4.8 4.8 0.03 0.05 0.15 98 1015.3
20260507095112 7 308 4.8 4.8 0.03 0.05 0.15 98 1015.2
20260507095002 7 317 8.0 8.0 0.03 0.05 0.15 98 1015.2
20260507094902 7 326 4.8 4.8 0.03 0.05 0.15 98 1015.2
20260507094803 7 314 4.8 4.8 0.03 0.05 0.15 99 1015.2
20260507094702 7 0.0 3.2 0.03 0.05 0.15 98 1015.1
20260507094602 7 322 1.6 3.2 0.03 0.05 0.15 99 1015.1
20260507094503 7 313 4.8 4.8 0.03 0.05 0.15 98 1015.1
20260507094403 7 310 3.2 4.8 0.03 0.05 0.15 98 1015.1
20260507094252 7 0.0 0.0 0.03 0.05 0.15 98 1015.1
20260507094152 7 0.0 0.0 0.03 0.05 0.15 98 1015.1
20260507094053 7 0.0 0.0 0.03 0.05 0.15 98 1015.0
20260507093952 7 0.0 0.0 0.03 0.05 0.15 98 1015.0
20260507093852 7 314 4.8 4.8 0.03 0.05 0.15 98 1015.0
20260507093753 7 324 6.4 6.4 0.03 0.05 0.15 98 1014.9
20260507093657 7 310 6.4 9.7 0.03 0.05 0.15 98 1015.0
20260507093542 7 312 3.2 6.4 0.03 0.05 0.15 98 1014.9
20260507093442 7 315 8.0 8.0 0.03 0.05 0.15 98 1014.9
20260507093342 7 310 4.8 6.4 0.03 0.05 0.15 98 1015.0
20260507093243 7 319 4.8 4.8 0.03 0.05 0.15 98 1014.9
20260507093142 7 321 3.2 3.2 0.03 0.05 0.15 98 1014.8
20260507093042 7 317 6.4 6.4 0.03 0.05 0.15 98 1014.9
20260507092933 7 305 8.0 9.7 0.03 0.05 0.15 98 1014.8
20260507092832 7 327 3.2 4.8 0.03 0.05 0.15 98 1014.8
20260507092732 7 321 9.7 9.7 0.03 0.05 0.15 98 1014.9
20260507092632 7 313 11.3 12.9 0.03 0.05 0.15 98 1014.9
20260507092533 7 314 6.4 6.4 0.03 0.05 0.15 98 1014.8
20260507092432 7 319 3.2 4.8 0.03 0.05 0.15 98 1014.9
20260507092332 7 312 8.0 8.0 0.03 0.05 0.15 98 1014.9
20260507092222 7 286 4.8 4.8 0.03 0.05 0.15 98 1014.8
20260507092122 7 294 3.2 8.0 0.03 0.05 0.15 98 1014.8
20260507092022 7 303 8.0 9.7 0.03 0.05 0.15 98 1014.8
20260507091923 7 313 3.2 9.7 0.03 0.05 0.15 98 1014.8
20260507091823 7 327 6.4 6.4 0.03 0.05 0.15 98 1014.8
20260507091722 7 328 4.8 4.8 0.03 0.05 0.15 98 1014.8
20260507091626 7 0.0 0.0 0.03 0.05 0.15 98 1014.8
20260507091513 7 345 1.6 3.2 0.03 0.05 0.15 98 1014.7
20260507091413 7 311 8.0 12.9 0.03 0.05 0.15 98 1014.7
20260507091312 7 315 4.8 6.4 0.03 0.05 0.15 98 1014.8
20260507091212 7 319 3.2 4.8 0.03 0.05 0.15 98 1014.7
20260507091113 7 323 4.8 6.4 0.03 0.05 0.15 98 1014.7
20260507091013 7 319 9.7 11.3 0.03 0.05 0.15 98 1014.7
20260507090902 7 331 4.8 6.4 0.03 0.05 0.15 98 1014.6
20260507090802 7 309 6.4 8.0 0.03 0.05 0.15 98 1014.6
20260507090703 7 316 3.2 3.2 0.03 0.05 0.15 98 1014.6
20260507090602 7 317 3.2 3.2 0.03 0.05 0.15 98 1014.6
20260507090502 7 323 4.8 6.4 0.03 0.05 0.15 98 1014.6
20260507090402 7 323 6.4 6.4 0.03 0.05 0.15 98 1014.6
20260507090303 7 0.0 0.0 0.03 0.05 0.15 98 1014.6
20260507090202 7 304 1.6 3.2 0.03 0.05 0.15 98 1014.6
20260507090002 7 323 3.2 3.2 0.03 0.05 0.15 98 1014.6
20260507085903 7 333 8.0 8.0 0.03 0.05 0.15 98 1014.5
20260507085802 7 314 4.8 4.8 0.03 0.05 0.15 98 1014.6
20260507085702 7 315 3.2 3.2 0.03 0.05 0.15 98 1014.6
20260507085603 7 298 6.4 6.4 0.00 0.03 0.13 98 1014.6
20260507085502 7 338 8.0 8.0 0.00 0.03 0.13 98 1014.5
20260507085402 7 335 4.8 6.4 0.00 0.03 0.13 98 1014.5
20260507085306 7 322 3.2 4.8 0.00 0.03 0.13 98 1014.5
20260507085203 7 308 4.8 4.8 0.00 0.03 0.13 98 1014.5
20260507085102 7 319 4.8 4.8 0.00 0.03 0.13 98 1014.5
20260507085002 7 324 8.0 8.0 0.00 0.03 0.13 98 1014.5
20260507084906 7 318 8.0 8.0 0.00 0.03 0.13 98 1014.5
20260507084752 7 326 4.8 6.4 0.00 0.03 0.13 98 1014.5
20260507084652 7 311 4.8 4.8 0.00 0.03 0.13 98 1014.5
20260507084552 7 320 4.8 6.4 0.00 0.03 0.13 98 1014.4
20260507084453 7 317 8.0 8.0 0.00 0.03 0.13 98 1014.5
20260507084352 7 311 8.0 9.7 0.00 0.03 0.13 98 1014.4
20260507084252 7 323 4.8 6.4 0.00 0.03 0.13 98 1014.4
20260507084152 7 313 4.8 6.4 0.00 0.03 0.13 98 1014.5
20260507084053 7 341 6.4 6.4 0.00 0.03 0.13 98 1014.4
20260507083952 7 327 6.4 6.4 0.00 0.03 0.13 98 1014.4
20260507083852 7 325 4.8 6.4 0.00 0.03 0.13 98 1014.4
20260507083752 7 327 6.4 6.4 0.00 0.03 0.13 98 1014.4
20260507083652 7 325 6.4 6.4 0.00 0.03 0.13 98 1014.4
20260507083552 7 310 8.0 9.7 0.00 0.03 0.13 98 1014.4
20260507083452 7 314 6.4 6.4 0.00 0.03 0.13 98 1014.4
20260507083353 7 331 8.0 8.0 0.00 0.03 0.13 98 1014.4
20260507083253 7 316 8.0 8.0 0.00 0.03 0.13 98 1014.4
20260507083152 7 339 11.3 12.9 0.00 0.03 0.13 98 1014.3
20260507083052 7 324 4.8 4.8 0.00 0.03 0.13 98 1014.4
20260507082953 7 325 6.4 6.4 0.00 0.03 0.13 98 1014.4
20260507082852 7 316 4.8 4.8 0.00 0.03 0.13 98 1014.4
20260507082742 7 312 9.7 9.7 0.00 0.03 0.13 98 1014.3
20260507082642 7 319 4.8 4.8 0.00 0.03 0.13 98 1014.3
20260507082542 7 330 4.8 4.8 0.00 0.03 0.13 98 1014.3
20260507082442 7 317 6.4 8.0 0.00 0.03 0.13 98 1014.3
20260507082343 7 314 6.4 8.0 0.00 0.03 0.13 98 1014.3
20260507082243 7 332 9.7 9.7 0.00 0.03 0.13 98 1014.2
20260507082147 7 317 8.0 11.3 0.00 0.03 0.13 98 1014.2
20260507082032 7 332 8.0 8.0 0.00 0.03 0.13 98 1014.2
20260507081932 7 329 8.0 8.0 0.00 0.03 0.13 98 1014.2
20260507081833 7 322 11.3 12.9 0.00 0.03 0.13 98 1014.2
20260507081732 7 340 8.0 9.7 0.00 0.03 0.13 98 1014.2
20260507081632 7 333 6.4 8.0 0.00 0.03 0.13 98 1014.2
20260507081532 7 319 4.8 4.8 0.00 0.03 0.13 98 1014.2
20260507081422 7 324 8.0 8.0 0.00 0.03 0.13 98 1014.2
20260507081322 7 312 8.0 8.0 0.00 0.03 0.13 98 1014.1
20260507081222 7 312 6.4 8.0 0.00 0.03 0.13 98 1014.1
20260507081123 7 327 6.4 6.4 0.00 0.03 0.13 98 1014.1
20260507081022 7 314 6.4 6.4 0.00 0.03 0.13 98 1014.1
20260507080922 7 329 4.8 4.8 0.00 0.03 0.13 98 1014.1
20260507080822 7 304 4.8 6.4 0.00 0.03 0.13 98 1014.1
20260507080713 7 293 8.0 8.0 0.00 0.03 0.13 98 1014.1
20260507080612 7 307 3.2 4.8 0.00 0.03 0.13 98 1014.1
20260507080512 7 311 6.4 6.4 0.00 0.03 0.13 98 1014.1
20260507080413 7 301 8.0 9.7 0.00 0.03 0.13 98 1014.1
20260507080312 7 315 8.0 11.3 0.00 0.03 0.13 98 1014.1
20260507080202 7 322 8.0 9.7 0.00 0.03 0.13 98 1014.1
20260507080003 7 325 8.0 9.7 0.00 0.03 0.13 98 1014.0
20260507075902 7 330 6.4 6.4 0.00 0.03 0.13 98 1014.0
20260507075802 7 317 9.7 9.7 0.00 0.03 0.13 98 1014.0
20260507075702 7 303 11.3 11.3 0.00 0.03 0.13 98 1014.0
20260507075603 7 323 4.8 4.8 0.00 0.03 0.13 98 1013.9
20260507075502 7 324 6.4 6.4 0.00 0.03 0.13 98 1013.9
20260507075402 7 319 1.6 1.6 0.00 0.03 0.13 98 1013.9
20260507075306 7 318 6.4 8.0 0.00 0.03 0.13 98 1013.9
20260507075202 7 326 9.7 9.7 0.00 0.03 0.13 98 1013.9
20260507075102 7 321 6.4 8.0 0.00 0.03 0.13 98 1013.9
20260507075002 7 327 4.8 4.8 0.00 0.03 0.13 98 1013.9
20260507074903 7 303 8.0 11.3 0.00 0.03 0.13 98 1013.9
20260507074802 7 289 3.2 3.2 0.00 0.03 0.13 98 1013.9
20260507074702 7 316 3.2 4.8 0.00 0.03 0.13 98 1013.9
20260507074602 7 309 6.4 6.4 0.03 0.03 0.13 98 1013.8
20260507074503 7 315 4.8 4.8 0.03 0.03 0.13 98 1013.9
20260507074402 7 335 11.3 11.3 0.03 0.03 0.13 98 1013.8
20260507074302 7 324 1.6 1.6 0.03 0.03 0.13 98 1013.8
20260507074202 7 307 3.2 3.2 0.03 0.03 0.13 98 1013.9
20260507074102 7 321 4.8 4.8 0.03 0.05 0.13 98 1013.8
20260507074002 7 316 3.2 3.2 0.03 0.05 0.13 98 1013.8
20260507073902 7 321 4.8 4.8 0.03 0.05 0.13 98 1013.8
20260507073803 6 0.0 0.0 0.03 0.05 0.13 98 1013.7
20260507073702 7 322 6.4 6.4 0.03 0.05 0.13 98 1013.8
20260507073603 6 323 4.8 4.8 0.03 0.05 0.13 98 1013.8
20260507073502 6 318 6.4 6.4 0.03 0.05 0.13 98 1013.8
20260507073402 6 323 6.4 8.0 0.03 0.05 0.13 98 1013.8
20260507073302 6 325 4.8 6.4 0.03 0.05 0.13 98 1013.8
20260507073202 6 320 4.8 4.8 0.03 0.05 0.13 98 1013.7
20260507073103 6 318 4.8 6.4 0.03 0.05 0.13 98 1013.7
20260507073002 6 314 8.0 9.7 0.03 0.05 0.13 98 1013.7
20260507072902 6 329 6.4 6.4 0.03 0.05 0.13 98 1013.7
20260507072802 6 0.0 0.0 0.03 0.05 0.13 98 1013.7
20260507072703 6 317 3.2 4.8 0.03 0.05 0.13 98 1013.7
20260507072602 6 315 4.8 4.8 0.03 0.05 0.13 98 1013.7
20260507072502 6 312 4.8 4.8 0.03 0.05 0.13 98 1013.7
20260507072402 6 322 6.4 6.4 0.03 0.05 0.13 98 1013.7
20260507072306 6 309 11.3 11.3 0.03 0.05 0.13 98 1013.7
20260507072202 6 329 4.8 4.8 0.03 0.05 0.13 98 1013.7
20260507072102 6 323 8.0 8.0 0.03 0.05 0.13 98 1013.7
20260507072002 6 317 4.8 9.7 0.03 0.05 0.13 98 1013.7
20260507071902 6 317 4.8 4.8 0.03 0.05 0.13 98 1013.7
20260507071802 6 326 6.4 8.0 0.03 0.05 0.13 98 1013.6
20260507071702 6 312 9.7 9.7 0.03 0.05 0.13 98 1013.6
20260507071603 6 349 4.8 4.8 0.03 0.05 0.13 98 1013.6
20260507071502 6 311 6.4 8.0 0.03 0.05 0.13 98 1013.6
20260507071402 6 325 4.8 4.8 0.03 0.05 0.13 98 1013.5
20260507071302 6 313 1.6 1.6 0.03 0.05 0.13 98 1013.5
20260507071202 6 325 4.8 4.8 0.03 0.05 0.13 98 1013.5
20260507071102 6 316 4.8 4.8 0.03 0.05 0.13 98 1013.5
20260507071002 6 317 6.4 9.7 0.03 0.05 0.13 98 1013.5
20260507070902 6 314 4.8 4.8 0.03 0.05 0.13 98 1013.5
20260507070802 6 308 11.3 11.3 0.03 0.05 0.13 98 1013.5
20260507070702 6 327 1.6 3.2 0.03 0.05 0.13 98 1013.5
20260507070602 6 313 4.8 4.8 0.03 0.05 0.13 98 1013.5
20260507070503 6 325 4.8 4.8 0.03 0.05 0.13 98 1013.5
20260507070402 6 313 4.8 4.8 0.03 0.05 0.13 98 1013.5
20260507070302 6 324 8.0 9.7 0.03 0.05 0.13 98 1013.6
20260507070202 6 317 8.0 8.0 0.03 0.05 0.13 98 1013.5
20260507070004 6 308 3.2 3.2 0.03 0.05 0.13 98 1013.5
20260507065902 6 329 3.2 4.8 0.03 0.05 0.13 98 1013.5
20260507065802 6 317 3.2 3.2 0.03 0.05 0.13 98 1013.5
20260507065702 6 315 3.2 4.8 0.03 0.05 0.13 98 1013.5
20260507065602 6 329 6.4 6.4 0.03 0.05 0.13 98 1013.5
20260507065502 6 323 4.8 4.8 0.03 0.05 0.13 98 1013.5
20260507065403 6 334 4.8 4.8 0.03 0.05 0.13 98 1013.5
20260507065305 6 323 6.4 6.4 0.03 0.05 0.13 98 1013.5
20260507065202 6 318 1.6 3.2 0.03 0.05 0.13 98 1013.5
20260507065102 6 318 3.2 3.2 0.03 0.05 0.13 98 1013.5
20260507065002 6 334 6.4 6.4 0.03 0.05 0.13 98 1013.4
20260507064902 6 325 4.8 4.8 0.03 0.05 0.13 98 1013.5
20260507064802 6 310 6.4 6.4 0.03 0.05 0.13 98 1013.4
20260507064702 6 328 4.8 4.8 0.03 0.05 0.13 98 1013.4
20260507064602 6 318 6.4 6.4 0.00 0.05 0.10 98 1013.4
20260507064502 6 331 1.6 1.6 0.00 0.05 0.10 98 1013.4
20260507064402 6 335 6.4 6.4 0.00 0.05 0.10 98 1013.4
20260507064303 6 324 6.4 6.4 0.00 0.05 0.10 98 1013.4
20260507064202 6 332 6.4 8.0 0.00 0.05 0.10 98 1013.4
20260507064102 6 332 6.4 6.4 0.00 0.05 0.10 98 1013.3
20260507064002 6 332 6.4 6.4 0.00 0.05 0.10 98 1013.3
20260507063902 6 331 6.4 6.4 0.00 0.05 0.10 98 1013.4
20260507063802 6 331 3.2 3.2 0.00 0.05 0.10 98 1013.4
20260507063702 6 335 6.4 6.4 0.00 0.05 0.10 98 1013.3
20260507063602 6 327 6.4 6.4 0.00 0.05 0.10 98 1013.3
20260507063502 6 328 6.4 6.4 0.00 0.05 0.10 98 1013.3
20260507063402 6 323 6.4 6.4 0.00 0.05 0.10 98 1013.3
20260507063302 6 330 6.4 6.4 0.00 0.08 0.10 98 1013.3
20260507063203 6 333 6.4 6.4 0.00 0.08 0.10 98 1013.3
20260507063102 6 334 9.7 9.7 0.00 0.08 0.10 98 1013.3
20260507063002 6 323 6.4 8.0 0.00 0.08 0.10 98 1013.2
20260507062902 6 325 4.8 4.8 0.00 0.08 0.10 98 1013.2
20260507062802 6 335 8.0 8.0 0.00 0.08 0.10 98 1013.2
20260507062702 6 316 8.0 8.0 0.00 0.08 0.10 98 1013.2
20260507062602 6 324 11.3 11.3 0.00 0.08 0.10 98 1013.1
20260507062502 6 325 4.8 6.4 0.00 0.08 0.10 98 1013.2
20260507062402 6 331 8.0 8.0 0.00 0.08 0.10 98 1013.1
20260507062305 6 333 6.4 8.0 0.00 0.08 0.10 98 1013.2
20260507062202 6 329 9.7 9.7 0.00 0.08 0.10 98 1013.1
20260507062103 6 311 6.4 8.0 0.00 0.08 0.10 98 1013.1
20260507062002 6 325 6.4 9.7 0.00 0.08 0.10 98 1013.1
20260507061902 6 325 6.4 6.4 0.00 0.10 0.10 98 1013.1
20260507061802 6 321 8.0 8.0 0.00 0.10 0.10 98 1013.1
20260507061703 6 302 11.3 14.5 0.00 0.10 0.10 98 1013.1
20260507061602 6 313 11.3 11.3 0.00 0.10 0.10 98 1013.1
20260507061502 6 320 11.3 12.9 0.00 0.10 0.10 98 1013.0
20260507061402 6 324 4.8 6.4 0.00 0.10 0.10 98 1013.1
20260507061302 6 310 8.0 8.0 0.00 0.10 0.10 98 1013.1
20260507061202 6 285 8.0 9.7 0.00 0.10 0.10 98 1013.1
20260507061102 6 330 6.4 6.4 0.00 0.10 0.10 98 1013.1
20260507061003 6 322 11.3 12.9 0.00 0.10 0.10 98 1013.1
20260507060902 6 313 8.0 9.7 0.00 0.10 0.10 98 1013.0
20260507060802 6 311 4.8 6.4 0.00 0.10 0.10 98 1013.0
20260507060702 6 327 4.8 6.4 0.00 0.10 0.10 98 1013.0
20260507060602 6 312 8.0 8.0 0.00 0.10 0.10 98 1013.0
20260507060502 6 318 8.0 11.3 0.00 0.10 0.10 98 1013.0
20260507060405 6 320 11.3 11.3 0.00 0.10 0.10 98 1013.0
20260507060302 6 329 4.8 6.4 0.00 0.10 0.10 98 1013.0
20260507060202 6 322 8.0 8.0 0.00 0.10 0.10 98 1012.9
20260507060002 6 307 4.8 6.4 0.00 0.10 0.10 98 1012.9
20260507055903 6 332 3.2 4.8 0.00 0.10 0.10 98 1012.9
20260507055802 6 334 4.8 4.8 0.00 0.10 0.10 98 1012.9
20260507055702 6 324 3.2 4.8 0.00 0.10 0.10 98 1012.9
20260507055602 6 337 8.0 8.0 0.00 0.10 0.10 98 1012.8
20260507055502 6 336 11.3 11.3 0.00 0.10 0.10 98 1012.8
20260507055402 6 337 8.0 8.0 0.00 0.10 0.10 98 1012.8
20260507055305 6 330 4.8 4.8 0.00 0.10 0.10 98 1012.8
20260507055202 6 318 3.2 3.2 0.00 0.10 0.10 98 1012.8
20260507055102 6 325 6.4 6.4 0.00 0.10 0.10 98 1012.8
20260507055002 6 323 8.0 8.0 0.00 0.10 0.10 98 1012.8
20260507054902 6 323 8.0 11.3 0.00 0.10 0.10 98 1012.8
20260507054802 6 308 9.7 11.3 0.00 0.10 0.10 98 1012.8
20260507054702 6 309 11.3 12.9 0.00 0.10 0.10 98 1012.7
20260507054602 6 314 8.0 9.7 0.00 0.10 0.10 98 1012.7
20260507054502 6 315 4.8 4.8 0.00 0.10 0.10 98 1012.7
20260507054402 6 325 4.8 4.8 0.00 0.10 0.10 98 1012.7
20260507054302 6 332 8.0 8.0 0.00 0.10 0.10 98 1012.6
20260507054202 6 300 6.4 9.7 0.00 0.10 0.10 98 1012.6
20260507054102 6 344 11.3 11.3 0.00 0.10 0.10 98 1012.6
20260507054002 6 323 6.4 8.0 0.00 0.10 0.10 98 1012.6
20260507053902 6 319 9.7 9.7 0.00 0.10 0.10 98 1012.5
20260507053802 6 330 8.0 8.0 0.00 0.10 0.10 98 1012.5
20260507053703 6 322 8.0 8.0 0.00 0.10 0.10 98 1012.5
20260507053602 6 323 6.4 6.4 0.00 0.13 0.10 98 1012.5
20260507053502 6 329 9.7 11.3 0.00 0.13 0.10 98 1012.5
20260507053402 6 293 4.8 6.4 0.00 0.13 0.10 98 1012.5
20260507053302 6 314 8.0 11.3 0.00 0.13 0.10 98 1012.5
20260507053202 6 327 6.4 9.7 0.00 0.13 0.10 98 1012.5
20260507053102 6 336 9.7 9.7 0.00 0.13 0.10 98 1012.5
20260507053002 6 324 6.4 6.4 0.00 0.13 0.10 98 1012.4
20260507052902 6 295 4.8 6.4 0.00 0.13 0.10 98 1012.4
20260507052802 6 323 4.8 4.8 0.00 0.13 0.10 98 1012.4
20260507052702 6 314 8.0 8.0 0.00 0.13 0.10 98 1012.4
20260507052602 6 327 4.8 8.0 0.00 0.13 0.10 98 1012.4
20260507052502 6 314 6.4 8.0 0.00 0.13 0.10 98 1012.4
20260507052402 6 325 8.0 11.3 0.00 0.13 0.10 98 1012.4
20260507052305 6 316 6.4 6.4 0.00 0.13 0.10 98 1012.4
20260507052202 6 333 6.4 9.7 0.00 0.13 0.10 98 1012.4
20260507052102 6 320 4.8 6.4 0.00 0.13 0.10 98 1012.4
20260507052002 6 329 3.2 4.8 0.00 0.13 0.10 98 1012.3
20260507051902 6 317 4.8 4.8 0.00 0.13 0.10 98 1012.4
20260507051801 6 317 4.8 4.8 0.00 0.13 0.10 98 1012.4
20260507051702 6 307 11.3 12.9 0.00 0.15 0.10 98 1012.4
20260507051602 6 0.0 1.6 0.00 0.15 0.10 98 1012.4
20260507051503 6 323 1.6 3.2 0.00 0.15 0.10 98 1012.3
20260507051401 6 311 6.4 6.4 0.00 0.15 0.10 98 1012.4
20260507051302 6 310 8.0 9.7 0.00 0.15 0.10 98 1012.3
20260507051202 6 304 4.8 4.8 0.00 0.15 0.10 98 1012.3
20260507051102 6 313 1.6 1.6 0.00 0.15 0.10 98 1012.4
20260507051002 6 311 4.8 8.0 0.00 0.15 0.10 98 1012.3
20260507050902 6 327 11.3 11.3 0.00 0.15 0.10 98 1012.3
20260507050802 6 332 6.4 6.4 0.00 0.15 0.10 98 1012.3
20260507050702 6 325 6.4 9.7 0.00 0.15 0.10 98 1012.2
20260507050602 6 317 4.8 4.8 0.00 0.15 0.10 98 1012.2
20260507050502 6 321 6.4 8.0 0.00 0.15 0.10 98 1012.2
20260507050402 6 305 4.8 4.8 0.00 0.15 0.10 98 1012.2
20260507050302 6 313 1.6 3.2 0.00 0.15 0.10 98 1012.2
20260507050202 6 319 11.3 11.3 0.00 0.15 0.10 98 1012.1
20260507050002 6 321 6.4 6.4 0.00 0.15 0.10 98 1012.1
20260507045902 6 331 4.8 4.8 0.00 0.15 0.10 98 1012.1
20260507045802 6 322 3.2 4.8 0.00 0.15 0.10 98 1012.1
20260507045702 6 316 6.4 6.4 0.00 0.15 0.10 98 1012.1
20260507045601 6 328 8.0 8.0 0.00 0.15 0.10 98 1012.1
20260507045502 6 309 4.8 9.7 0.00 0.15 0.10 98 1012.1
20260507045402 6 308 6.4 6.4 0.00 0.15 0.10 98 1012.0
20260507045306 6 313 4.8 6.4 0.00 0.15 0.10 98 1012.0
20260507045201 6 308 14.5 14.5 0.00 0.15 0.10 98 1012.1
20260507045102 6 311 4.8 4.8 0.00 0.15 0.10 98 1012.1
20260507045002 6 307 1.6 3.2 0.00 0.15 0.10 98 1012.0
20260507044902 6 283 3.2 3.2 0.00 0.15 0.10 98 1012.1
20260507044802 6 311 4.8 9.7 0.00 0.15 0.10 98 1012.0
20260507044702 6 302 4.8 4.8 0.00 0.15 0.10 98 1012.0
20260507044602 6 320 3.2 3.2 0.00 0.15 0.10 98 1012.0
20260507044501 6 311 3.2 4.8 0.00 0.15 0.10 98 1012.0
20260507044402 6 315 6.4 6.4 0.00 0.15 0.10 98 1012.0
20260507044301 6 261 1.6 4.8 0.00 0.15 0.10 98 1012.0
20260507044203 6 319 4.8 4.8 0.00 0.15 0.10 98 1012.0
20260507044102 6 311 3.2 3.2 0.00 0.15 0.10 98 1012.0
20260507044001 6 327 8.0 8.0 0.00 0.15 0.10 98 1012.0
20260507043902 6 326 4.8 6.4 0.00 0.15 0.10 98 1012.0
20260507043802 6 318 4.8 4.8 0.00 0.15 0.10 98 1011.9
20260507043702 6 319 3.2 3.2 0.00 0.15 0.10 98 1011.9
20260507043601 6 303 4.8 4.8 0.00 0.15 0.10 98 1012.0
20260507043502 6 315 6.4 6.4 0.00 0.15 0.10 98 1011.9
20260507043401 6 316 1.6 3.2 0.00 0.15 0.10 98 1011.9
20260507043302 6 302 8.0 9.7 0.00 0.15 0.10 98 1011.9
20260507043201 6 318 6.4 6.4 0.00 0.15 0.10 98 1011.9
20260507043103 6 302 4.8 9.7 0.00 0.15 0.10 98 1012.0
20260507043002 6 321 9.7 9.7 0.00 0.15 0.10 98 1011.9
20260507042901 6 320 8.0 8.0 0.00 0.18 0.10 98 1011.9
20260507042802 6 319 4.8 6.4 0.00 0.18 0.10 98 1011.9
20260507042702 6 316 4.8 4.8 0.00 0.18 0.10 98 1011.9
20260507042602 6 315 1.6 1.6 0.00 0.18 0.10 98 1011.9
20260507042501 6 315 4.8 4.8 0.00 0.18 0.10 98 1011.8
20260507042402 6 317 9.7 9.7 0.00 0.18 0.10 98 1011.8
20260507042302 6 305 8.0 8.0 0.00 0.18 0.10 98 1011.8
20260507042202 6 320 9.7 11.3 0.00 0.18 0.10 98 1011.8
20260507042101 6 0.0 0.0 0.00 0.18 0.10 98 1011.7
20260507042003 6 314 3.2 4.8 0.00 0.18 0.10 98 1011.7
20260507041902 6 302 11.3 11.3 0.00 0.18 0.10 98 1011.7
20260507041801 6 319 4.8 4.8 0.00 0.18 0.10 98 1011.7
20260507041702 6 325 3.2 6.4 0.00 0.18 0.10 98 1011.7
20260507041602 6 317 6.4 6.4 0.00 0.18 0.10 98 1011.7
20260507041502 6 319 4.8 4.8 0.00 0.18 0.10 98 1011.7
20260507041401 6 314 3.2 6.4 0.00 0.18 0.10 98 1011.7
20260507041302 6 312 6.4 6.4 0.00 0.18 0.10 98 1011.6
20260507041202 6 307 8.0 8.0 0.00 0.18 0.10 98 1011.6
20260507041101 6 314 6.4 8.0 0.00 0.18 0.10 98 1011.6
20260507041002 6 333 11.3 11.3 0.00 0.18 0.10 98 1011.6
20260507040902 6 0.0 0.0 0.00 0.18 0.10 98 1011.6
20260507040801 6 314 3.2 4.8 0.00 0.18 0.10 98 1011.6
20260507040702 6 312 8.0 8.0 0.00 0.20 0.10 98 1011.6
20260507040602 6 326 8.0 8.0 0.00 0.20 0.10 98 1011.6
20260507040502 6 319 9.7 9.7 0.00 0.20 0.10 98 1011.6
20260507040401 6 310 4.8 4.8 0.00 0.20 0.10 98 1011.5
20260507040302 6 303 4.8 6.4 0.00 0.20 0.10 98 1011.5
20260507040202 6 331 4.8 4.8 0.00 0.20 0.10 98 1011.5
20260507040001 6 306 1.6 1.6 0.00 0.20 0.10 98 1011.5
20260507035901 6 329 4.8 6.4 0.00 0.20 0.10 98 1011.5
20260507035803 6 317 6.4 8.0 0.00 0.20 0.10 98 1011.5
20260507035702 6 327 3.2 3.2 0.00 0.20 0.10 98 1011.5
20260507035602 6 305 4.8 4.8 0.00 0.20 0.10 98 1011.5
20260507035501 6 313 8.0 8.0 0.00 0.20 0.10 98 1011.5
20260507035402 6 314 4.8 4.8 0.00 0.20 0.10 98 1011.5
20260507035301 6 315 9.7 9.7 0.00 0.20 0.10 98 1011.5
20260507035202 6 321 6.4 6.4 0.00 0.20 0.10 98 1011.5
20260507035102 6 317 4.8 4.8 0.00 0.20 0.10 98 1011.4
20260507035001 6 330 9.7 9.7 0.00 0.20 0.10 98 1011.5
20260507034902 6 327 3.2 3.2 0.00 0.20 0.10 98 1011.5
20260507034802 6 312 6.4 6.4 0.00 0.20 0.10 98 1011.4
20260507034703 6 305 9.7 11.3 0.00 0.20 0.10 98 1011.4
20260507034602 6 310 3.2 4.8 0.00 0.20 0.10 98 1011.4
20260507034502 6 323 4.8 4.8 0.00 0.20 0.10 98 1011.4
20260507034402 6 321 4.8 8.0 0.00 0.20 0.10 98 1011.4
20260507034303 6 305 3.2 4.8 0.00 0.20 0.10 98 1011.4
20260507034202 6 324 8.0 8.0 0.00 0.20 0.10 98 1011.4
20260507034102 6 322 3.2 6.4 0.00 0.23 0.10 98 1011.4
20260507034002 6 309 4.8 4.8 0.00 0.23 0.10 98 1011.4
20260507033901 6 324 4.8 4.8 0.00 0.23 0.08 98 1011.4
20260507033802 6 306 4.8 4.8 0.00 0.23 0.08 98 1011.5
20260507033702 6 321 3.2 4.8 0.00 0.23 0.08 98 1011.4
20260507033602 6 312 8.0 8.0 0.00 0.23 0.08 98 1011.4
20260507033502 6 328 8.0 8.0 0.00 0.23 0.08 98 1011.4
20260507033401 6 331 8.0 9.7 0.00 0.23 0.08 98 1011.4
20260507033302 6 315 3.2 4.8 0.00 0.23 0.08 98 1011.4
20260507033202 6 302 4.8 4.8 0.00 0.23 0.08 98 1011.4
20260507033101 6 302 4.8 6.4 0.00 0.23 0.08 98 1011.4
20260507033002 6 328 6.4 8.0 0.00 0.23 0.08 98 1011.4
20260507032902 6 310 6.4 6.4 0.00 0.23 0.08 98 1011.4
20260507032802 6 324 8.0 9.7 0.00 0.23 0.08 98 1011.4
20260507032702 6 286 6.4 8.0 0.00 0.23 0.08 98 1011.4
20260507032601 6 333 6.4 6.4 0.00 0.23 0.08 98 1011.4
20260507032503 6 315 4.8 4.8 0.00 0.23 0.08 98 1011.4
20260507032402 6 323 4.8 6.4 0.00 0.23 0.08 98 1011.4
20260507032305 6 314 4.8 4.8 0.00 0.23 0.08 98 1011.4
20260507032202 6 309 3.2 3.2 0.00 0.23 0.08 98 1011.4
20260507032102 6 308 4.8 4.8 0.00 0.23 0.08 98 1011.4
20260507032001 6 326 4.8 4.8 0.00 0.23 0.08 98 1011.4
20260507031901 6 291 1.6 1.6 0.00 0.23 0.08 98 1011.4
20260507031801 6 281 8.0 11.3 0.00 0.23 0.08 98 1011.4
20260507031701 6 269 1.6 1.6 0.00 0.23 0.08 98 1011.4
20260507031601 6 313 6.4 6.4 0.00 0.23 0.08 98 1011.4
20260507031501 6 328 8.0 8.0 0.00 0.23 0.08 98 1011.4
20260507031402 6 314 4.8 4.8 0.00 0.23 0.08 98 1011.4
20260507031301 6 315 6.4 6.4 0.00 0.23 0.08 98 1011.4
20260507031201 6 322 8.0 8.0 0.00 0.23 0.08 98 1011.4
20260507031102 6 315 8.0 8.0 0.00 0.23 0.08 98 1011.4
20260507031002 6 316 4.8 4.8 0.00 0.23 0.08 98 1011.4
20260507030902 6 325 4.8 6.4 0.00 0.23 0.08 98 1011.4
20260507030802 6 312 6.4 6.4 0.00 0.23 0.08 98 1011.4
20260507030701 6 318 6.4 6.4 0.00 0.23 0.08 98 1011.4
20260507030602 6 319 9.7 9.7 0.00 0.23 0.08 98 1011.3
20260507030502 6 316 4.8 4.8 0.00 0.23 0.08 98 1011.3
20260507030402 6 319 4.8 4.8 0.00 0.23 0.08 98 1011.3
20260507030302 6 311 3.2 3.2 0.00 0.23 0.08 98 1011.3
20260507030201 6 311 6.4 6.4 0.00 0.23 0.08 98 1011.3
20260507030002 6 328 4.8 6.4 0.00 0.23 0.08 98 1011.3
20260507025902 6 340 4.8 6.4 0.00 0.23 0.08 98 1011.3
20260507025802 6 317 4.8 4.8 0.00 0.23 0.08 98 1011.3
20260507025702 6 317 4.8 8.0 0.00 0.23 0.08 98 1011.3
20260507025602 6 306 4.8 4.8 0.00 0.23 0.08 98 1011.3
20260507025501 6 312 6.4 6.4 0.00 0.23 0.08 98 1011.2
20260507025401 6 317 6.4 6.4 0.00 0.23 0.08 98 1011.3
20260507025302 6 313 6.4 6.4 0.00 0.23 0.08 98 1011.3
20260507025202 6 315 8.0 8.0 0.00 0.23 0.08 98 1011.3
20260507025101 6 315 6.4 6.4 0.00 0.23 0.08 98 1011.3
20260507025001 6 307 4.8 4.8 0.00 0.23 0.08 98 1011.3
20260507024901 6 299 6.4 6.4 0.00 0.23 0.08 98 1011.2
20260507024802 6 313 3.2 3.2 0.00 0.23 0.08 98 1011.2
20260507024702 6 328 6.4 6.4 0.00 0.23 0.08 98 1011.2
20260507024602 6 322 4.8 4.8 0.00 0.23 0.08 98 1011.2
20260507024501 6 322 8.0 8.0 0.00 0.23 0.08 98 1011.2
20260507024401 6 309 6.4 8.0 0.00 0.23 0.08 98 1011.1
20260507024301 6 314 4.8 4.8 0.00 0.23 0.08 98 1011.2
20260507024202 6 322 8.0 9.7 0.00 0.23 0.08 98 1011.1
20260507024103 6 330 9.7 9.7 0.00 0.23 0.08 98 1011.1
20260507024001 6 315 8.0 9.7 0.00 0.25 0.08 98 1011.1
20260507023902 6 326 8.0 8.0 0.00 0.25 0.08 98 1011.1
20260507023802 6 296 6.4 8.0 0.00 0.25 0.08 98 1011.2
20260507023702 6 305 12.9 12.9 0.00 0.25 0.08 98 1011.1
20260507023601 6 320 6.4 6.4 0.00 0.25 0.08 98 1011.1
20260507023501 6 341 6.4 6.4 0.00 0.25 0.08 98 1011.2
20260507023402 6 333 9.7 9.7 0.00 0.25 0.08 98 1011.1
20260507023301 6 316 6.4 6.4 0.00 0.25 0.08 98 1011.1
20260507023201 6 326 4.8 6.4 0.00 0.25 0.08 98 1011.1
20260507023102 6 325 8.0 8.0 0.00 0.25 0.08 98 1011.1
20260507023002 6 304 4.8 4.8 0.00 0.25 0.08 98 1011.1
20260507022902 6 312 4.8 6.4 0.00 0.25 0.08 98 1011.1
20260507022802 6 315 8.0 8.0 0.00 0.25 0.08 98 1011.1
20260507022701 6 318 6.4 8.0 0.00 0.25 0.08 98 1011.1
20260507022602 6 315 1.6 4.8 0.00 0.25 0.08 98 1011.1
20260507022502 6 331 6.4 6.4 0.00 0.25 0.08 98 1011.1
20260507022401 6 338 9.7 9.7 0.00 0.25 0.08 98 1011.1
20260507022302 6 317 8.0 8.0 0.00 0.25 0.08 98 1011.1
20260507022201 6 305 6.4 8.0 0.00 0.25 0.08 98 1011.1
20260507022101 6 324 6.4 6.4 0.00 0.25 0.08 98 1011.1
20260507022001 6 327 8.0 8.0 0.00 0.28 0.08 98 1011.0
20260507021902 6 290 8.0 8.0 0.00 0.28 0.08 98 1011.1
20260507021801 6 325 8.0 8.0 0.00 0.28 0.08 98 1011.1
20260507021702 7 298 9.7 11.3 0.00 0.28 0.08 98 1011.0
20260507021601 6 282 4.8 9.7 0.00 0.28 0.08 98 1011.1
20260507021502 6 319 4.8 4.8 0.00 0.28 0.05 98 1011.0
20260507021401 6 317 3.2 4.8 0.00 0.28 0.05 98 1011.0
20260507021301 6 0.0 0.0 0.00 0.28 0.05 98 1011.0
20260507021201 6 330 1.6 1.6 0.00 0.28 0.05 98 1011.0
20260507021101 6 302 4.8 4.8 0.00 0.28 0.05 98 1011.0
20260507021001 6 318 6.4 8.0 0.00 0.28 0.05 98 1011.0
20260507020902 6 325 6.4 6.4 0.00 0.28 0.05 98 1011.0
20260507020802 6 311 3.2 3.2 0.00 0.28 0.05 98 1011.0
20260507020702 6 316 4.8 4.8 0.00 0.28 0.05 98 1011.0
20260507020601 6 315 3.2 3.2 0.00 0.28 0.05 98 1010.9
20260507020501 6 317 8.0 8.0 0.00 0.28 0.05 98 1010.9
20260507020402 6 313 3.2 4.8 0.00 0.28 0.05 98 1010.9
20260507020301 6 313 6.4 8.0 0.00 0.28 0.05 98 1010.9
20260507020202 6 315 8.0 9.7 0.00 0.28 0.05 98 1010.9
20260507020001 6 324 4.8 4.8 0.00 0.28 0.05 98 1010.9
20260507015901 6 315 4.8 4.8 0.00 0.28 0.05 98 1010.9
20260507015801 6 303 8.0 12.9 0.00 0.28 0.05 98 1010.9
20260507015702 7 314 4.8 6.4 0.00 0.28 0.05 98 1010.9
20260507015601 7 335 4.8 4.8 0.00 0.28 0.05 98 1010.9
20260507015501 6 306 4.8 4.8 0.00 0.28 0.05 98 1010.9
20260507015401 7 317 3.2 3.2 0.00 0.28 0.05 98 1010.9
20260507015305 7 318 6.4 6.4 0.00 0.28 0.05 98 1010.8
20260507015201 7 0.0 1.6 0.00 0.28 0.05 98 1010.8
20260507015102 7 0.0 0.0 0.00 0.28 0.05 98 1010.8
20260507015002 7 0.0 0.0 0.00 0.28 0.05 98 1010.9
20260507014901 7 311 4.8 4.8 0.00 0.28 0.05 98 1010.9
20260507014802 7 317 9.7 11.3 0.00 0.28 0.05 98 1010.9
20260507014702 7 0.0 3.2 0.00 0.28 0.05 98 1010.9
20260507014602 7 322 6.4 6.4 0.00 0.28 0.05 98 1010.9
20260507014502 6 317 4.8 4.8 0.00 0.28 0.05 98 1010.9
20260507014401 7 325 3.2 3.2 0.00 0.28 0.05 98 1010.9
20260507014301 7 320 3.2 4.8 0.00 0.28 0.05 98 1010.9
20260507014202 7 0.0 0.0 0.00 0.28 0.05 98 1010.8
20260507014101 6 308 1.6 3.2 0.00 0.28 0.05 98 1010.8
20260507014001 6 309 3.2 3.2 0.00 0.28 0.05 98 1010.9
20260507013902 6 317 3.2 3.2 0.00 0.28 0.05 98 1010.8
20260507013802 6 317 3.2 3.2 0.00 0.28 0.05 98 1010.8
20260507013701 6 315 3.2 3.2 0.00 0.28 0.05 98 1010.8
20260507013601 6 311 4.8 4.8 0.00 0.28 0.05 98 1010.8
20260507013502 6 309 3.2 4.8 0.00 0.28 0.05 98 1010.8
20260507013401 6 309 4.8 4.8 0.00 0.28 0.05 98 1010.8
20260507013301 6 318 6.4 6.4 0.00 0.28 0.05 98 1010.8
20260507013202 6 319 4.8 6.4 0.00 0.28 0.05 98 1010.8
20260507013102 6 317 1.6 3.2 0.00 0.28 0.05 98 1010.8
20260507013002 6 321 4.8 6.4 0.00 0.28 0.05 98 1010.8
20260507012901 6 314 4.8 4.8 0.00 0.28 0.05 98 1010.8
20260507012801 6 317 3.2 3.2 0.00 0.28 0.05 98 1010.8
20260507012701 6 318 3.2 3.2 0.00 0.28 0.05 98 1010.8
20260507012601 6 321 3.2 3.2 0.00 0.28 0.05 98 1010.8
20260507012502 6 328 1.6 1.6 0.00 0.28 0.05 98 1010.7
20260507012402 6 0.0 0.0 0.00 0.28 0.05 98 1010.7
20260507012305 6 322 6.4 6.4 0.00 0.28 0.05 98 1010.8
20260507012202 6 301 6.4 6.4 0.00 0.28 0.05 98 1010.7
20260507012101 6 319 3.2 3.2 0.00 0.28 0.05 98 1010.7
20260507012002 6 313 1.6 3.2 0.00 0.28 0.05 98 1010.7
20260507011901 6 0.0 0.0 0.00 0.28 0.05 98 1010.7
20260507011801 6 0.0 0.0 0.00 0.28 0.05 98 1010.7
20260507011701 6 321 4.8 4.8 0.00 0.28 0.05 98 1010.7
20260507011601 6 317 3.2 3.2 0.00 0.28 0.05 98 1010.7
20260507011501 6 321 3.2 3.2 0.00 0.28 0.05 98 1010.7
20260507011401 6 319 1.6 3.2 0.00 0.28 0.05 98 1010.7
20260507011302 6 312 1.6 3.2 0.00 0.28 0.05 98 1010.7
20260507011201 6 314 4.8 4.8 0.00 0.30 0.05 98 1010.7
20260507011101 6 324 6.4 6.4 0.00 0.30 0.05 98 1010.7
20260507011001 6 323 4.8 4.8 0.00 0.30 0.05 98 1010.7
20260507010902 6 325 4.8 6.4 0.00 0.30 0.05 98 1010.7
20260507010801 6 319 6.4 6.4 0.00 0.30 0.05 98 1010.7
20260507010701 6 316 4.8 4.8 0.00 0.30 0.05 98 1010.7
20260507010601 6 316 3.2 3.2 0.00 0.30 0.05 98 1010.7
20260507010501 6 0.0 0.0 0.00 0.30 0.05 98 1010.6
20260507010402 6 318 1.6 1.6 0.00 0.30 0.05 98 1010.6
20260507010301 6 317 4.8 4.8 0.00 0.30 0.05 98 1010.7
20260507010202 6 317 4.8 4.8 0.00 0.30 0.05 98 1010.7
20260507010001 6 315 4.8 4.8 0.00 0.30 0.05 98 1010.6
20260507005901 6 0.0 0.0 0.00 0.30 0.05 98 1010.7
20260507005802 6 315 4.8 4.8 0.00 0.30 0.05 98 1010.7
20260507005702 6 315 6.4 6.4 0.00 0.30 0.05 98 1010.6
20260507005601 6 325 6.4 8.0 0.00 0.30 0.05 98 1010.7
20260507005502 6 322 6.4 6.4 0.00 0.30 0.05 98 1010.6
20260507005401 6 309 4.8 6.4 0.00 0.30 0.05 98 1010.6
20260507005301 6 321 3.2 3.2 0.00 0.30 0.05 98 1010.6
20260507005201 6 323 4.8 4.8 0.00 0.30 0.05 98 1010.6
20260507005102 6 327 4.8 4.8 0.00 0.33 0.05 98 1010.6
20260507005001 6 322 4.8 6.4 0.00 0.33 0.05 98 1010.6
20260507004902 6 324 4.8 4.8 0.00 0.33 0.05 98 1010.6
20260507004801 6 310 6.4 6.4 0.00 0.33 0.05 98 1010.6
20260507004702 6 327 3.2 3.2 0.00 0.33 0.05 98 1010.7
20260507004601 6 324 6.4 6.4 0.00 0.33 0.05 98 1010.6
20260507004501 6 0.0 0.0 0.00 0.33 0.05 98 1010.7
20260507004402 6 333 4.8 4.8 0.00 0.33 0.05 98 1010.6
20260507004302 6 340 4.8 4.8 0.00 0.33 0.05 98 1010.6
20260507004201 6 343 8.0 8.0 0.00 0.33 0.05 98 1010.6
20260507004047 6 311 1.6 1.6 0.00 0.33 0.05 98 1010.6
20260507003948 6 312 4.8 4.8 0.00 0.33 0.05 98 1010.6
20260507003847 6 310 3.2 6.4 0.00 0.33 0.05 98 1010.6
20260507003747 6 338 1.6 1.6 0.00 0.33 0.05 98 1010.6
20260507003647 6 0.0 0.0 0.00 0.36 0.05 98 1010.6
20260507003537 6 312 6.4 6.4 0.00 0.36 0.05 98 1010.6
20260507003437 6 321 8.0 8.0 0.00 0.36 0.05 98 1010.6
20260507003337 6 317 4.8 4.8 0.00 0.36 0.05 98 1010.6
20260507003238 6 0.0 0.0 0.00 0.36 0.05 98 1010.6
20260507003138 6 311 3.2 3.2 0.00 0.36 0.05 98 1010.6
20260507003027 6 331 4.8 4.8 0.00 0.36 0.05 98 1010.5
20260507002927 6 327 4.8 6.4 0.00 0.38 0.05 98 1010.6
20260507002828 6 323 3.2 3.2 0.00 0.38 0.05 98 1010.6
20260507002727 6 346 4.8 8.0 0.00 0.38 0.05 98 1010.5
20260507002627 6 326 4.8 4.8 0.00 0.38 0.05 98 1010.6
20260507002527 6 312 4.8 6.4 0.00 0.38 0.05 98 1010.6
20260507002427 6 319 4.8 4.8 0.00 0.38 0.03 98 1010.6
20260507002317 6 317 3.2 3.2 0.00 0.38 0.03 98 1010.6
20260507002217 6 313 8.0 9.7 0.00 0.38 0.03 98 1010.6
20260507002118 6 311 3.2 3.2 0.00 0.38 0.03 98 1010.5
20260507002017 6 312 4.8 4.8 0.00 0.38 0.03 98 1010.5
20260507001917 6 313 1.6 1.6 0.00 0.38 0.03 98 1010.6
20260507001817 6 304 6.4 8.0 0.00 0.38 0.03 98 1010.5
20260507001722 6 312 3.2 6.4 0.00 0.38 0.03 98 1010.5
20260507001607 6 0.0 0.0 0.00 0.38 0.03 98 1010.5
20260507001507 6 0.0 0.0 0.00 0.38 0.03 98 1010.5
20260507001407 6 0.0 0.0 0.00 0.38 0.03 98 1010.5
20260507001307 6 324 1.6 3.2 0.00 0.38 0.03 98 1010.4
20260507001207 6 300 3.2 3.2 0.00 0.38 0.03 98 1010.5
20260507001108 6 300 1.6 1.6 0.00 0.38 0.03 98 1010.4
20260507000958 6 299 1.6 1.6 0.00 0.41 0.03 98 1010.4
20260507000857 6 313 1.6 1.6 0.00 0.41 0.03 98 1010.4
20260507000757 6 310 3.2 3.2 0.00 0.41 0.03 98 1010.4
20260507000658 6 324 6.4 9.7 0.00 0.41 0.03 98 1010.4
20260507000558 6 319 3.2 3.2 0.00 0.41 0.03 98 1010.4
20260507000457 6 321 8.0 8.0 0.00 0.41 0.03 98 1010.4
20260507000358 6 320 1.6 3.2 0.00 0.41 0.03 98 1010.4
20260507000247 6 317 3.2 3.2 0.00 0.41 0.03 98 1010.4
20260507000147 6 309 4.8 8.0 0.00 0.43 0.03 98 1010.4
20260507000047 6 325 4.8 4.8 0.00 0.43 0.03 98 1010.4
20260506235948 6 313 4.8 8.0 0.00 0.43 0.03 98 1010.4
20260506235848 6 313 8.0 8.0 0.00 0.43 0.03 98 1010.4
20260506235747 6 327 8.0 8.0 0.00 0.43 0.03 98 1010.4
20260506235651 6 328 4.8 4.8 0.00 0.43 0.03 98 1010.4
20260506235537 6 329 6.4 6.4 0.00 0.43 0.03 98 1010.4
20260506235438 6 321 3.2 3.2 0.00 0.43 0.03 98 1010.4
20260506235337 6 324 6.4 9.7 0.00 0.43 0.03 98 1010.4
20260506235237 6 323 6.4 6.4 0.00 0.43 0.03 98 1010.4
20260506235137 6 0.0 1.6 0.00 0.43 0.03 98 1010.4
20260506235037 6 315 3.2 3.2 0.00 0.43 0.03 98 1010.5
20260506234927 6 313 1.6 1.6 0.00 0.43 0.03 98 1010.4
20260506234827 6 304 4.8 6.4 0.00 0.43 0.03 98 1010.5
20260506234728 6 317 8.0 8.0 0.00 0.43 0.03 98 1010.5
20260506234627 6 296 3.2 3.2 0.00 0.43 0.03 98 1010.4
20260506234527 6 316 4.8 6.4 0.00 0.43 0.03 98 1010.5
20260506234427 6 309 6.4 6.4 0.00 0.43 0.03 98 1010.5
20260506234328 6 315 6.4 6.4 0.00 0.43 0.03 98 1010.4
20260506234217 6 320 3.2 3.2 0.00 0.46 0.03 98 1010.5
20260506234117 6 0.0 0.0 0.00 0.46 0.03 98 1010.5
20260506234017 6 325 4.8 4.8 0.00 0.46 0.03 98 1010.4
20260506233917 6 298 1.6 1.6 0.00 0.46 0.03 98 1010.4
20260506233817 6 323 4.8 6.4 0.00 0.46 0.03 98 1010.4
20260506233717 6 321 6.4 6.4 0.00 0.46 0.03 98 1010.5
20260506233621 6 319 6.4 6.4 0.00 0.46 0.03 98 1010.4
20260506233507 6 306 6.4 6.4 0.00 0.48 0.03 98 1010.4
20260506233407 6 319 6.4 6.4 0.00 0.48 0.00 98 1010.4
20260506233307 6 307 4.8 4.8 0.00 0.48 0.00 98 1010.4
20260506233208 6 306 4.8 6.4 0.00 0.48 0.00 98 1010.5
20260506233108 6 327 3.2 3.2 0.00 0.48 0.00 98 1010.4
20260506233007 6 329 3.2 3.2 0.00 0.48 0.00 98 1010.4
20260506232857 6 331 4.8 6.4 0.00 0.48 0.00 98 1010.4
20260506232757 6 319 4.8 4.8 0.00 0.48 0.00 98 1010.4
20260506232657 6 304 4.8 4.8 0.00 0.48 0.00 98 1010.5
20260506232557 6 317 4.8 4.8 0.00 0.48 0.00 98 1010.4
20260506232458 6 321 4.8 4.8 0.00 0.48 0.00 98 1010.5
20260506232357 6 316 6.4 11.3 0.00 0.48 0.00 98 1010.4
20260506232257 6 302 6.4 8.0 0.00 0.48 0.00 98 1010.4
20260506232147 6 333 3.2 4.8 0.00 0.48 0.00 98 1010.4
20260506232048 6 327 9.7 9.7 0.00 0.48 0.00 98 1010.4
20260506231947 6 314 6.4 8.0 0.00 0.48 0.00 98 1010.4
20260506231847 6 326 4.8 4.8 0.00 0.48 0.00 98 1010.3
20260506231748 7 0.0 0.0 0.00 0.48 0.00 98 1010.3
20260506231647 6 311 8.0 8.0 0.00 0.48 0.00 98 1010.3
20260506231551 6 317 1.6 3.2 0.00 0.48 0.00 98 1010.3
20260506231437 6 317 9.7 9.7 0.00 0.48 0.00 98 1010.3
20260506231338 7 320 9.7 11.3 0.00 0.48 0.00 98 1010.3
20260506231237 7 310 6.4 8.0 0.00 0.51 0.00 98 1010.3
20260506231137 7 305 6.4 9.7 0.00 0.51 0.00 98 1010.3
20260506231037 7 311 4.8 6.4 0.00 0.51 0.00 98 1010.3
20260506230938 7 316 6.4 6.4 0.00 0.51 0.00 98 1010.2
20260506230827 7 311 6.4 6.4 0.00 0.51 0.00 98 1010.2
20260506230727 7 328 8.0 8.0 0.00 0.51 0.00 98 1010.2
20260506230627 7 348 12.9 14.5 0.00 0.51 0.00 98 1010.3
20260506230527 7 320 8.0 8.0 0.00 0.51 0.00 98 1010.3
20260506230427 7 295 3.2 3.2 0.00 0.51 0.00 98 1010.3
20260506230327 7 322 6.4 8.0 0.00 0.51 0.00 98 1010.3
20260506230228 7 326 6.4 6.4 0.00 0.51 0.00 98 1010.3
20260506230117 7 322 4.8 4.8 0.00 0.51 0.00 98 1010.3
20260506230017 7 320 4.8 4.8 0.00 0.51 0.00 98 1010.3
20260506225917 7 320 6.4 6.4 0.00 0.51 0.00 98 1010.3
20260506225817 7 311 6.4 6.4 0.00 0.51 0.00 98 1010.3
20260506225717 7 304 4.8 6.4 0.00 0.51 0.00 98 1010.3
20260506225617 7 321 4.8 4.8 0.00 0.51 0.00 98 1010.3
20260506225521 7 0.0 0.0 0.00 0.51 0.00 98 1010.3
20260506225407 7 355 4.8 4.8 0.00 0.51 0.00 98 1010.3
20260506225307 7 317 8.0 8.0 0.00 0.51 0.00 98 1010.3
20260506225207 7 327 3.2 3.2 0.00 0.51 0.00 98 1010.3
20260506225108 7 326 6.4 6.4 0.00 0.51 0.00 98 1010.3
20260506225007 7 342 8.0 8.0 0.00 0.51 0.00 98 1010.3
20260506224907 7 315 8.0 8.0 0.00 0.51 0.00 98 1010.3
20260506224757 7 316 9.7 9.7 0.00 0.51 0.00 98 1010.3
20260506224658 7 323 3.2 3.2 0.00 0.51 0.00 98 1010.3
20260506224557 7 327 4.8 4.8 0.00 0.51 0.00 98 1010.3
20260506224457 7 325 4.8 4.8 0.00 0.51 0.00 98 1010.3
20260506224357 7 323 9.7 9.7 0.00 0.51 0.00 98 1010.3
20260506224257 7 326 6.4 6.4 0.00 0.51 0.00 98 1010.2
20260506224157 7 321 9.7 11.3 0.00 0.51 0.00 98 1010.3
20260506224047 7 315 6.4 6.4 0.00 0.51 0.00 98 1010.3
20260506223948 7 316 4.8 4.8 0.00 0.51 0.00 98 1010.2
20260506223847 7 312 6.4 8.0 0.00 0.51 0.00 98 1010.2
20260506223747 7 310 8.0 8.0 0.00 0.51 0.00 98 1010.2
20260506223647 7 313 4.8 4.8 0.00 0.51 0.00 98 1010.2
20260506223547 7 338 4.8 4.8 0.00 0.51 0.00 98 1010.2
20260506223451 7 329 6.4 6.4 0.00 0.51 0.00 98 1010.2
20260506223337 7 321 9.7 11.3 0.00 0.51 0.00 98 1010.2
20260506223237 7 323 8.0 8.0 0.00 0.51 0.00 98 1010.2
20260506223137 7 325 4.8 4.8 0.00 0.53 0.00 98 1010.2
20260506223037 7 315 6.4 6.4 0.00 0.53 0.00 98 1010.2
20260506222937 7 314 8.0 9.7 0.00 0.53 0.00 98 1010.2
20260506222837 7 320 4.8 4.8 0.00 0.53 0.00 98 1010.2
20260506222727 7 0.0 0.0 0.00 0.53 0.00 98 1010.2
20260506222627 7 0.0 3.2 0.00 0.53 0.00 98 1010.1
20260506222527 7 311 1.6 1.6 0.00 0.53 0.00 98 1010.2
20260506222428 7 298 4.8 4.8 0.00 0.53 0.00 98 1010.1
20260506222327 7 323 3.2 3.2 0.00 0.53 0.00 98 1010.1
20260506222227 7 325 4.8 4.8 0.00 0.53 0.00 98 1010.1
20260506222127 7 329 4.8 4.8 0.00 0.53 0.00 98 1010.1
20260506222027 7 314 8.0 9.7 0.00 0.53 0.00 98 1010.1
20260506221927 7 321 3.2 3.2 0.00 0.53 0.00 98 1010.1
20260506221827 7 314 6.4 6.4 0.00 0.53 0.00 98 1010.1
20260506221728 7 316 4.8 4.8 0.00 0.53 0.00 98 1010.1
20260506221627 7 308 1.6 1.6 0.00 0.53 0.00 98 1010.1
20260506221527 7 313 3.2 4.8 0.00 0.53 0.00 98 1010.2
20260506221427 7 324 8.0 8.0 0.00 0.53 0.00 98 1010.1
20260506221328 7 314 8.0 9.7 0.00 0.53 0.00 98 1010.2
20260506221227 7 314 3.2 3.2 0.00 0.53 0.00 98 1010.1
20260506221127 7 320 4.8 6.4 0.00 0.53 0.00 98 1010.1
20260506221027 7 313 8.0 8.0 0.00 0.53 0.00 98 1010.2
20260506220927 7 311 4.8 4.8 0.00 0.56 0.00 98 1010.1
20260506220827 7 325 4.8 4.8 0.00 0.56 0.00 98 1010.1
20260506220727 7 296 4.8 4.8 0.00 0.56 0.00 98 1010.1
20260506220628 7 313 1.6 1.6 0.00 0.56 0.00 98 1010.1
20260506220527 7 323 3.2 3.2 0.00 0.56 0.00 98 1010.0
20260506220427 7 320 8.0 8.0 0.00 0.56 0.00 98 1010.1
20260506220327 7 313 9.7 9.7 0.00 0.56 0.00 98 1009.9
20260506220227 7 308 3.2 4.8 0.00 0.56 0.00 98 1010.1
20260506220127 7 317 1.6 3.2 0.00 0.56 0.00 98 1010.0
20260506220027 7 330 4.8 6.4 0.00 0.56 0.00 98 1009.9
20260506215912 7 318 3.2 3.2 0.00 0.58 1.60 98 1009.9
20260506215812 7 310 3.2 8.0 0.00 0.58 1.60 98 1009.9
20260506215712 7 317 8.0 9.7 0.00 0.58 1.60 98 1009.9
20260506215612 7 327 4.8 6.4 0.00 0.58 1.60 98 1010.0
20260506215513 7 333 3.2 6.4 0.00 0.58 1.60 98 1009.9
20260506215412 7 310 4.8 6.4 0.00 0.58 1.60 98 1009.9
20260506215312 7 315 9.7 9.7 0.00 0.58 1.60 98 1010.0
20260506215212 7 290 3.2 3.2 0.00 0.58 1.60 98 1010.1
20260506215112 7 318 4.8 6.4 0.00 0.58 1.60 98 1010.0
20260506215017 7 317 3.2 4.8 0.00 0.58 1.60 98 1010.0
20260506214912 6 312 6.4 6.4 0.00 0.58 1.60 98 1010.0
20260506214812 7 323 3.2 3.2 0.00 0.58 1.60 97 1010.0
20260506214712 6 328 3.2 3.2 0.00 0.58 1.60 97 1010.0
20260506214612 6 309 4.8 4.8 0.00 0.58 1.60 97 1010.0
20260506214512 6 316 4.8 4.8 0.00 0.58 1.60 97 1010.0
20260506214413 6 314 8.0 8.0 0.00 0.58 1.60 97 1010.0
20260506214312 6 304 1.6 1.6 0.00 0.58 1.60 97 1010.0
20260506214212 6 308 4.8 8.0 0.00 0.58 1.60 97 1010.0
20260506214112 6 325 6.4 6.4 0.00 0.58 1.60 97 1010.0
20260506214012 6 345 6.4 6.4 0.00 0.58 1.60 97 1010.0
20260506213912 6 330 4.8 4.8 0.00 0.58 1.60 98 1010.0
20260506213812 6 324 6.4 8.0 0.00 0.58 1.60 98 1010.0
20260506213712 6 341 6.4 6.4 0.00 0.58 1.60 98 1010.0
20260506213612 6 321 6.4 6.4 0.00 0.58 1.60 98 1010.0
20260506213512 6 350 6.4 8.0 0.00 0.58 1.60 98 1010.0
20260506213412 6 321 8.0 8.0 0.00 0.58 1.60 98 1010.0
20260506213312 6 294 6.4 6.4 0.00 0.58 1.60 98 1009.9
20260506213212 6 314 6.4 6.4 0.00 0.58 1.60 98 1009.9
20260506213112 6 311 8.0 11.3 0.00 0.58 1.60 98 1009.9
20260506213012 6 318 12.9 16.1 0.00 0.58 1.60 98 1009.9
20260506212912 6 326 4.8 4.8 0.00 0.58 1.60 98 1009.9
20260506212812 6 338 8.0 8.0 0.00 0.58 1.60 98 1009.9
20260506212712 6 341 9.7 9.7 0.00 0.58 1.60 97 1009.9
20260506212612 6 317 11.3 11.3 0.00 0.58 1.60 98 1009.9
20260506212512 6 321 8.0 8.0 0.00 0.61 1.60 98 1009.9
20260506212412 6 326 9.7 9.7 0.00 0.61 1.60 97 1009.9
20260506212312 6 321 4.8 4.8 0.00 0.61 1.60 97 1009.9
20260506212213 6 306 9.7 9.7 0.00 0.61 1.60 98 1009.8
20260506212112 6 336 8.0 8.0 0.00 0.61 1.60 97 1009.8
20260506212012 6 312 8.0 8.0 0.00 0.61 1.60 98 1009.9
20260506211912 6 311 1.6 3.2 0.00 0.61 1.60 97 1009.8
20260506211812 6 0.0 0.0 0.00 0.61 1.60 97 1009.9
20260506211712 6 331 8.0 11.3 0.00 0.61 1.60 97 1009.9
20260506211612 6 311 4.8 9.7 0.00 0.61 1.60 97 1009.8
20260506211512 6 285 4.8 6.4 0.00 0.61 1.60 97 1009.9
20260506211412 6 306 8.0 9.7 0.00 0.61 1.60 97 1009.9
20260506211312 6 325 6.4 8.0 0.00 0.61 1.60 97 1009.8
20260506211212 6 339 3.2 4.8 0.00 0.61 1.60 97 1009.9
20260506211113 6 333 3.2 3.2 0.00 0.61 1.60 97 1009.8
20260506211012 6 334 4.8 6.4 0.00 0.61 1.60 97 1009.8
20260506210912 6 340 6.4 8.0 0.00 0.61 1.60 97 1009.8
20260506210812 6 331 9.7 11.3 0.00 0.61 1.60 97 1009.8
20260506210712 6 338 9.7 11.3 0.00 0.61 1.60 97 1009.8
20260506210612 6 323 9.7 9.7 0.00 0.61 1.60 97 1009.8
20260506210512 6 301 11.3 12.9 0.00 0.61 1.60 97 1009.8
20260506210412 6 312 6.4 6.4 0.00 0.61 1.60 97 1009.8
20260506210312 6 322 8.0 8.0 0.00 0.61 1.60 97 1009.8
20260506210212 6 316 8.0 11.3 0.00 0.61 1.60 97 1009.8
20260506210112 6 333 8.0 8.0 0.00 0.61 1.60 97 1009.8
20260506210013 6 326 6.4 8.0 0.00 0.61 1.60 97 1009.7
20260506205912 6 308 9.7 11.3 0.00 0.64 1.60 97 1009.8
20260506205812 6 316 11.3 12.9 0.00 0.64 1.60 97 1009.8
20260506205711 6 308 4.8 8.0 0.00 0.64 1.60 97 1009.7
20260506205612 6 325 9.7 9.7 0.00 0.64 1.60 97 1009.7
20260506205512 6 305 12.9 14.5 0.00 0.64 1.60 97 1009.8
20260506205412 6 332 8.0 9.7 0.00 0.64 1.60 97 1009.7
20260506205312 6 330 6.4 8.0 0.00 0.64 1.60 97 1009.7
20260506205212 6 310 8.0 8.0 0.00 0.66 1.60 97 1009.7
20260506205112 6 325 4.8 6.4 0.00 0.66 1.60 97 1009.6
20260506205012 6 322 8.0 8.0 0.00 0.66 1.60 97 1009.6
20260506204913 6 318 4.8 4.8 0.00 0.66 1.60 97 1009.7
20260506204812 6 319 6.4 6.4 0.00 0.66 1.60 97 1009.7
20260506204712 6 330 8.0 8.0 0.00 0.66 1.60 97 1009.7
20260506204612 6 320 8.0 8.0 0.00 0.66 1.60 97 1009.7
20260506204512 6 313 4.8 4.8 0.00 0.66 1.60 97 1009.7
20260506204412 6 315 9.7 9.7 0.00 0.66 1.60 97 1009.7
20260506204312 7 315 9.7 9.7 0.00 0.66 1.60 97 1009.7
20260506204212 6 329 6.4 6.4 0.00 0.66 1.60 97 1009.7
20260506204112 7 322 6.4 9.7 0.00 0.66 1.60 97 1009.7
20260506204012 6 336 6.4 8.0 0.00 0.66 1.60 97 1009.7
20260506203912 7 337 9.7 9.7 0.00 0.66 1.60 97 1009.7
20260506203813 7 308 4.8 11.3 0.00 0.69 1.60 97 1009.7
20260506203711 7 291 9.7 12.9 0.00 0.69 1.60 97 1009.7
20260506203612 7 322 11.3 12.9 0.00 0.69 1.60 97 1009.6
20260506203512 7 316 8.0 8.0 0.00 0.69 1.60 97 1009.6
20260506203412 7 324 8.0 8.0 0.00 0.69 1.60 97 1009.7
20260506203312 7 306 11.3 11.3 0.00 0.69 1.60 97 1009.7
20260506203212 7 329 9.7 11.3 0.00 0.69 1.60 97 1009.7
20260506203112 7 320 11.3 12.9 0.00 0.69 1.60 97 1009.6
20260506203012 7 346 11.3 12.9 0.00 0.69 1.60 97 1009.7
20260506202912 7 331 12.9 12.9 0.00 0.69 1.60 97 1009.7
20260506202812 7 326 16.1 16.1 0.00 0.69 1.60 97 1009.7
20260506202713 7 320 11.3 12.9 0.00 0.69 1.60 97 1009.7
20260506202612 7 313 9.7 9.7 0.00 0.69 1.60 97 1009.7
20260506202512 7 319 3.2 4.8 0.00 0.69 1.60 97 1009.6
20260506202412 7 325 6.4 6.4 0.00 0.69 1.60 97 1009.6
20260506202312 7 321 4.8 4.8 0.00 0.69 1.60 97 1009.6
20260506202212 7 312 3.2 3.2 0.00 0.69 1.60 97 1009.6
20260506202112 7 327 6.4 8.0 0.00 0.69 1.60 97 1009.6
20260506202012 7 310 6.4 6.4 0.00 0.69 1.60 97 1009.6
20260506201912 7 327 4.8 4.8 0.00 0.69 1.60 97 1009.6
20260506201812 7 312 8.0 8.0 0.00 0.69 1.60 97 1009.6
20260506201712 7 319 6.4 6.4 0.00 0.69 1.60 97 1009.6
20260506201612 7 331 4.8 4.8 0.00 0.69 1.60 97 1009.6
20260506201511 7 334 9.7 9.7 0.00 0.69 1.60 97 1009.6
20260506201411 7 334 8.0 8.0 0.00 0.69 1.60 97 1009.6
20260506201312 7 313 14.5 16.1 0.00 0.69 1.60 97 1009.6
20260506201212 7 322 4.8 6.4 0.00 0.69 1.60 97 1009.6
20260506201112 7 330 8.0 8.0 0.00 0.69 1.60 97 1009.6
20260506201012 7 331 6.4 8.0 0.00 0.69 1.60 97 1009.6
20260506200912 7 334 8.0 9.7 0.00 0.69 1.60 97 1009.5
20260506200812 7 335 9.7 11.3 0.00 0.69 1.60 97 1009.6
20260506200712 7 324 8.0 9.7 0.00 0.69 1.60 97 1009.5
20260506200611 7 327 8.0 8.0 0.00 0.69 1.60 97 1009.5
20260506200513 7 301 8.0 11.3 0.00 0.69 1.60 97 1009.5
20260506200412 7 315 14.5 19.3 0.00 0.69 1.60 97 1009.5
20260506200312 7 314 8.0 8.0 0.00 0.69 1.60 97 1009.5
20260506200214 7 332 12.9 12.9 0.00 0.69 1.60 97 1009.5
20260506200113 7 323 12.9 12.9 0.00 0.69 1.60 97 1009.5
20260506200012 7 326 6.4 8.0 0.00 0.69 1.60 97 1009.5
20260506195912 7 318 9.7 11.3 0.00 0.69 1.60 97 1009.5
20260506195812 7 318 11.3 11.3 0.00 0.69 1.60 97 1009.5
20260506195712 7 313 9.7 9.7 0.00 0.71 1.60 97 1009.4
20260506195612 7 337 4.8 4.8 0.00 0.71 1.60 97 1009.4
20260506195512 7 333 11.3 11.3 0.00 0.71 1.60 97 1009.4
20260506195412 7 334 8.0 8.0 0.00 0.71 1.60 97 1009.4
20260506195312 7 331 8.0 8.0 0.00 0.71 1.60 97 1009.5
20260506195212 7 313 11.3 11.3 0.00 0.71 1.60 97 1009.5
20260506195111 7 318 11.3 11.3 0.00 0.71 1.60 97 1009.5
20260506195012 7 333 6.4 8.0 0.00 0.71 1.60 97 1009.4
20260506194911 7 313 6.4 8.0 0.00 0.71 1.60 97 1009.4
20260506194811 7 321 6.4 6.4 0.00 0.71 1.60 97 1009.4
20260506194711 7 318 9.7 12.9 0.00 0.71 1.60 97 1009.4
20260506194612 7 315 14.5 14.5 0.00 0.71 1.60 97 1009.4
20260506194511 7 307 14.5 14.5 0.00 0.71 1.60 97 1009.4
20260506194411 7 303 6.4 8.0 0.00 0.71 1.60 97 1009.4
20260506194312 7 315 8.0 8.0 0.00 0.71 1.60 97 1009.4
20260506194211 7 330 4.8 4.8 0.00 0.71 1.60 97 1009.4
20260506194111 7 329 6.4 6.4 0.00 0.71 1.60 97 1009.3
20260506194012 7 318 11.3 11.3 0.00 0.71 1.60 97 1009.4
20260506193912 7 310 11.3 12.9 0.00 0.71 1.60 97 1009.4
20260506193812 7 335 11.3 14.5 0.00 0.71 1.60 97 1009.4
20260506193711 7 329 8.0 8.0 0.00 0.71 1.60 97 1009.4
20260506193612 7 314 12.9 12.9 0.00 0.71 1.60 97 1009.4
20260506193512 7 345 11.3 11.3 0.00 0.71 1.60 97 1009.4
20260506193411 7 333 9.7 11.3 0.00 0.71 1.60 97 1009.4
20260506193311 7 326 3.2 4.8 0.00 0.71 1.60 97 1009.3
20260506193211 7 326 8.0 8.0 0.00 0.71 1.60 97 1009.3
20260506193112 7 336 6.4 6.4 0.00 0.71 1.60 97 1009.3
20260506193012 7 307 4.8 6.4 0.00 0.71 1.60 97 1009.3
20260506192911 7 330 6.4 8.0 0.00 0.71 1.60 97 1009.3
20260506192813 7 324 12.9 12.9 0.00 0.71 1.60 97 1009.2
20260506192711 7 312 11.3 11.3 0.00 0.71 1.60 97 1009.2
20260506192611 7 319 9.7 12.9 0.00 0.71 1.60 97 1009.2
20260506192512 7 315 6.4 6.4 0.00 0.71 1.60 97 1009.2
20260506192412 7 314 8.0 8.0 0.00 0.71 1.60 97 1009.2
20260506192311 7 309 6.4 6.4 0.00 0.71 1.60 97 1009.1
20260506192212 7 317 9.7 9.7 0.00 0.74 1.60 97 1009.2
20260506192112 7 323 12.9 14.5 0.00 0.74 1.60 97 1009.1
20260506192011 7 329 9.7 9.7 0.00 0.74 1.60 97 1009.1
20260506191911 7 320 9.7 9.7 0.00 0.74 1.60 97 1009.1
20260506191812 7 324 11.3 11.3 0.00 0.74 1.60 97 1009.1
20260506191713 7 333 9.7 11.3 0.00 0.74 1.60 97 1009.1
20260506191611 7 315 6.4 6.4 0.00 0.74 1.60 97 1009.0
20260506191511 7 321 9.7 9.7 0.00 0.74 1.60 97 1009.1
20260506191412 7 305 4.8 4.8 0.00 0.74 1.60 97 1009.0
20260506191312 7 305 11.3 11.3 0.00 0.74 1.60 97 1009.0
20260506191211 7 307 8.0 8.0 0.00 0.74 1.60 97 1009.0
20260506191112 7 324 4.8 4.8 0.00 0.74 1.60 97 1009.0
20260506191012 7 336 8.0 9.7 0.00 0.74 1.60 97 1009.0
20260506190911 7 316 8.0 9.7 0.00 0.74 1.60 97 1009.0
20260506190811 7 304 11.3 12.9 0.00 0.76 1.60 97 1009.0
20260506190711 7 313 14.5 14.5 0.00 0.76 1.60 97 1009.0
20260506190612 7 319 9.7 11.3 0.00 0.76 1.60 97 1008.9
20260506190512 7 328 11.3 11.3 0.00 0.76 1.60 97 1009.0
20260506190412 7 330 14.5 14.5 0.00 0.76 1.60 97 1008.9
20260506190312 7 319 8.0 8.0 0.00 0.76 1.60 97 1008.9
20260506190212 7 324 9.7 9.7 0.00 0.76 1.60 97 1008.9
20260506190111 7 335 8.0 8.0 0.00 0.76 1.60 97 1008.9
20260506190011 7 312 6.4 6.4 0.00 0.76 1.60 97 1008.9
20260506185912 7 333 9.7 9.7 0.00 0.76 1.60 97 1008.9
20260506185811 7 326 11.3 11.3 0.00 0.76 1.60 97 1009.0
20260506185712 7 324 6.4 8.0 0.00 0.76 1.60 97 1008.9
20260506185611 7 329 9.7 9.7 0.00 0.76 1.60 97 1008.9
20260506185512 7 315 4.8 4.8 0.00 0.76 1.60 97 1008.9
20260506185411 7 319 4.8 4.8 0.00 0.76 1.60 97 1008.9
20260506185311 7 320 8.0 8.0 0.00 0.76 1.60 97 1008.9
20260506185212 7 325 6.4 6.4 0.00 0.76 1.60 97 1008.9
20260506185112 7 333 6.4 8.0 0.00 0.76 1.60 97 1008.9
20260506185012 7 314 4.8 4.8 0.00 0.76 1.60 97 1008.9
20260506184911 7 0.0 0.0 0.00 0.79 1.60 97 1008.9
20260506184812 7 313 3.2 3.2 0.00 0.79 1.60 97 1008.9
20260506184711 7 316 8.0 8.0 0.00 0.79 1.60 97 1008.9
20260506184611 7 322 8.0 8.0 0.00 0.79 1.57 97 1008.9
20260506184511 7 312 4.8 4.8 0.00 0.79 1.57 97 1008.8
20260506184412 7 318 4.8 4.8 0.00 0.79 1.57 97 1008.8
20260506184312 7 319 4.8 4.8 0.00 0.79 1.57 97 1008.8
20260506184211 7 339 9.7 9.7 0.00 0.79 1.57 97 1008.8
20260506184111 7 330 9.7 11.3 0.00 0.79 1.57 97 1008.8
20260506184012 7 322 8.0 8.0 0.00 0.79 1.57 97 1008.8
20260506183911 7 341 6.4 6.4 0.00 0.79 1.57 97 1008.7
20260506183811 7 323 6.4 8.0 0.00 0.79 1.57 97 1008.7
20260506183711 7 327 4.8 4.8 0.00 0.79 1.57 97 1008.7
20260506183611 7 325 6.4 6.4 0.00 0.79 1.57 97 1008.7
20260506183511 7 321 9.7 9.7 0.00 0.79 1.57 97 1008.7
20260506183412 7 313 8.0 9.7 0.00 0.79 1.57 97 1008.6
20260506183313 7 328 8.0 8.0 0.00 0.79 1.57 97 1008.7
20260506183211 7 311 6.4 6.4 0.00 0.79 1.57 97 1008.7
20260506183112 7 323 3.2 4.8 0.00 0.79 1.57 97 1008.6
20260506183011 7 333 6.4 6.4 0.00 0.79 1.57 97 1008.6
20260506182912 7 335 8.0 8.0 0.00 0.79 1.57 97 1008.5
20260506182811 7 317 8.0 9.7 0.00 0.79 1.57 97 1008.6
20260506182712 7 324 4.8 4.8 0.00 0.79 1.57 97 1008.6
20260506182611 7 320 3.2 4.8 0.00 0.79 1.57 97 1008.6
20260506182511 7 336 4.8 4.8 0.00 0.79 1.57 97 1008.6
20260506182412 7 341 8.0 8.0 0.00 0.79 1.57 97 1008.6
20260506182311 7 332 9.7 9.7 0.00 0.79 1.57 97 1008.6
20260506182213 7 325 4.8 6.4 0.00 0.79 1.57 97 1008.6
20260506182111 7 323 6.4 6.4 0.00 0.79 1.57 97 1008.6
20260506182011 7 302 4.8 4.8 0.00 0.79 1.57 97 1008.6
20260506181911 7 334 6.4 6.4 0.00 0.79 1.57 97 1008.6
20260506181812 7 321 8.0 8.0 0.00 0.79 1.57 97 1008.5
20260506181711 7 313 9.7 9.7 0.00 0.79 1.57 97 1008.5
20260506181612 7 331 4.8 6.4 0.00 0.79 1.57 97 1008.5
20260506181512 7 327 4.8 4.8 0.00 0.79 1.57 97 1008.5
20260506181411 7 331 6.4 6.4 0.00 0.79 1.57 97 1008.5
20260506181311 7 325 4.8 4.8 0.00 0.79 1.57 97 1008.5
20260506181211 7 325 4.8 4.8 0.00 0.79 1.57 97 1008.5
20260506181112 7 298 8.0 9.7 0.00 0.79 1.57 97 1008.4
20260506181011 7 344 6.4 6.4 0.00 0.79 1.57 97 1008.4
20260506180911 7 325 6.4 8.0 0.00 0.79 1.57 97 1008.4
20260506180812 7 325 4.8 6.4 0.00 0.79 1.57 97 1008.4
20260506180712 7 324 6.4 8.0 0.00 0.79 1.57 97 1008.4
20260506180612 7 311 8.0 8.0 0.00 0.79 1.57 97 1008.4
20260506180512 7 330 9.7 9.7 0.00 0.79 1.57 97 1008.4
20260506180412 7 334 8.0 8.0 0.00 0.79 1.57 97 1008.4
20260506180311 7 337 6.4 6.4 0.00 0.79 1.57 97 1008.4
20260506180211 7 335 6.4 6.4 0.00 0.79 1.57 97 1008.4
20260506180111 7 320 4.8 4.8 0.00 0.79 1.57 97 1008.3
20260506180012 7 315 8.0 8.0 0.00 0.79 1.57 97 1008.4
20260506175911 7 320 8.0 8.0 0.00 0.79 1.55 97 1008.3
20260506175812 7 329 8.0 8.0 0.00 0.79 1.55 97 1008.3
20260506175711 7 323 9.7 11.3 0.00 0.79 1.55 97 1008.3
20260506175612 7 330 4.8 6.4 0.00 0.79 1.55 97 1008.3
20260506175511 7 327 9.7 9.7 0.00 0.79 1.55 97 1008.3
20260506175411 7 328 6.4 6.4 0.00 0.79 1.55 97 1008.3
20260506175312 7 329 4.8 4.8 0.00 0.79 1.55 97 1008.2
20260506175211 7 342 8.0 8.0 0.00 0.79 1.55 97 1008.3
20260506175112 7 315 4.8 4.8 0.00 0.79 1.55 97 1008.3
20260506175011 7 310 6.4 8.0 0.00 0.79 1.55 97 1008.2
20260506174912 7 299 9.7 9.7 0.00 0.79 1.55 97 1008.3
20260506174811 7 329 6.4 6.4 0.00 0.79 1.55 97 1008.3
20260506174711 7 333 6.4 6.4 0.00 0.79 1.55 97 1008.2
20260506174611 7 332 4.8 4.8 0.00 0.79 1.55 97 1008.3
20260506174512 7 336 4.8 6.4 0.00 0.79 1.55 97 1008.2
20260506174412 7 322 4.8 4.8 0.00 0.79 1.55 97 1008.2
20260506174311 7 344 6.4 6.4 0.00 0.79 1.55 97 1008.2
20260506174212 7 342 9.7 9.7 0.00 0.79 1.55 97 1008.2
20260506174111 7 333 6.4 6.4 0.00 0.79 1.55 97 1008.2
20260506174011 7 337 4.8 4.8 0.00 0.79 1.55 97 1008.2
20260506173857 7 326 4.8 6.4 0.00 0.81 1.55 97 1008.2
20260506173759 7 337 6.4 6.4 0.00 0.81 1.55 97 1008.2
20260506173657 7 340 4.8 4.8 0.00 0.81 1.55 97 1008.2
20260506173558 7 336 9.7 9.7 0.00 0.81 1.55 97 1008.2
20260506173457 7 331 9.7 9.7 0.00 0.81 1.55 97 1008.2
20260506173348 7 340 16.1 16.1 0.00 0.81 1.55 97 1008.2
20260506173247 7 339 11.3 11.3 0.00 0.81 1.55 97 1008.1
20260506173148 7 333 3.2 4.8 0.00 0.81 1.55 97 1008.2
20260506173048 7 327 4.8 6.4 0.00 0.81 1.55 97 1008.1
20260506172947 7 315 8.0 8.0 0.00 0.81 1.55 97 1008.2
20260506172847 7 333 8.0 8.0 0.00 0.81 1.55 97 1008.1
20260506172751 7 331 9.7 9.7 0.00 0.81 1.55 97 1008.1
20260506172638 7 345 9.7 9.7 0.00 0.81 1.55 97 1008.1
20260506172538 7 325 6.4 8.0 0.00 0.81 1.55 97 1008.1
20260506172437 7 330 8.0 8.0 0.00 0.81 1.55 97 1008.1
20260506172337 7 327 6.4 6.4 0.00 0.81 1.55 97 1008.1
20260506172238 7 327 4.8 4.8 0.00 0.81 1.55 97 1008.0
20260506172137 7 329 3.2 4.8 0.00 0.81 1.55 97 1008.1
20260506172027 7 343 6.4 6.4 0.00 0.81 1.55 97 1008.0
20260506171928 7 331 4.8 8.0 0.00 0.81 1.55 97 1008.0
20260506171827 7 321 6.4 6.4 0.00 0.81 1.55 97 1008.0
20260506171727 7 321 6.4 8.0 0.00 0.81 1.55 97 1008.0
20260506171627 7 311 6.4 6.4 0.00 0.81 1.55 97 1008.0
20260506171528 7 321 11.3 11.3 0.00 0.81 1.55 97 1008.0
20260506171427 7 334 6.4 6.4 0.00 0.81 1.55 97 1008.0
20260506171317 7 325 6.4 6.4 0.00 0.81 1.55 97 1008.0
20260506171217 7 319 4.8 4.8 0.00 0.81 1.55 97 1008.0
20260506171118 7 317 4.8 4.8 0.00 0.81 1.55 97 1008.0
20260506171017 7 317 6.4 8.0 0.00 0.81 1.55 97 1008.0
20260506170917 7 320 8.0 8.0 0.00 0.81 1.55 97 1007.9
20260506170817 7 320 3.2 4.8 0.00 0.81 1.55 97 1008.0
20260506170723 7 319 4.8 8.0 0.00 0.81 1.55 97 1008.0
20260506170608 7 317 6.4 6.4 0.00 0.81 1.55 97 1007.9
20260506170508 7 310 4.8 6.4 0.00 0.81 1.55 97 1008.0
20260506170408 7 309 3.2 3.2 0.00 0.81 1.55 97 1008.0
20260506170307 7 304 8.0 8.0 0.00 0.81 1.55 97 1008.0
20260506170207 7 323 3.2 3.2 0.00 0.81 1.55 97 1007.9
20260506170107 7 322 4.8 4.8 0.00 0.81 1.55 97 1007.9
20260506165958 7 321 4.8 6.4 0.00 0.81 1.55 97 1007.9
20260506165857 7 331 1.6 3.2 0.00 0.81 1.55 97 1008.0
20260506165757 7 327 6.4 6.4 0.00 0.81 1.55 97 1007.9
20260506165657 7 315 8.0 9.7 0.00 0.81 1.55 97 1007.9
20260506165557 7 328 3.2 4.8 0.00 0.81 1.55 97 1007.9
20260506165447 7 331 3.2 4.8 0.00 0.81 1.55 97 1007.9
20260506165347 7 332 3.2 4.8 0.00 0.81 1.55 97 1007.9
20260506165248 7 332 6.4 6.4 0.00 0.81 1.55 97 1007.9
20260506165147 7 335 3.2 3.2 0.00 0.81 1.55 97 1007.9
20260506165047 7 321 6.4 8.0 0.00 0.81 1.55 97 1008.0
20260506164947 7 317 3.2 3.2 0.00 0.81 1.55 97 1007.9
20260506164848 7 331 3.2 6.4 0.00 0.81 1.55 97 1007.9
20260506164748 7 328 4.8 4.8 0.00 0.81 1.55 97 1007.9
20260506164651 7 327 8.0 8.0 0.00 0.81 1.55 97 1007.9
20260506164537 7 329 4.8 4.8 0.00 0.81 1.55 97 1007.9
20260506164437 7 329 4.8 4.8 0.00 0.81 1.55 97 1007.9
20260506164338 7 329 3.2 3.2 0.00 0.81 1.55 97 1007.9
20260506164237 7 323 4.8 4.8 0.00 0.81 1.55 97 1007.9
20260506164138 7 325 3.2 3.2 0.00 0.81 1.55 97 1007.8
20260506164037 7 316 6.4 6.4 0.00 0.81 1.55 97 1007.8
20260506163927 7 319 6.4 8.0 0.00 0.81 1.55 97 1007.9
20260506163827 7 310 3.2 3.2 0.00 0.81 1.55 97 1007.8
20260506163728 7 329 1.6 1.6 0.00 0.81 1.55 97 1007.9
20260506163627 7 329 3.2 4.8 0.00 0.81 1.55 97 1007.9
20260506163527 7 325 6.4 6.4 0.00 0.81 1.55 97 1007.9
20260506163428 7 311 6.4 6.4 0.00 0.81 1.55 97 1007.8
20260506163327 7 326 6.4 6.4 0.00 0.81 1.55 97 1007.9
20260506163217 7 313 1.6 1.6 0.00 0.81 1.55 97 1007.8
20260506163117 7 294 8.0 8.0 0.00 0.81 1.55 97 1007.8
20260506163018 7 326 8.0 8.0 0.00 0.81 1.55 97 1007.8
20260506162917 7 319 4.8 4.8 0.00 0.81 1.55 97 1007.9
20260506162817 7 313 4.8 6.4 0.00 0.81 1.55 97 1007.8
20260506162717 7 317 6.4 6.4 0.00 0.81 1.55 97 1007.8
20260506162622 7 319 3.2 4.8 0.00 0.81 1.55 97 1007.8
20260506162507 7 315 6.4 6.4 0.00 0.81 1.55 97 1007.8
20260506162407 7 313 3.2 4.8 0.00 0.81 1.55 97 1007.8
20260506162307 7 303 6.4 6.4 0.00 0.81 1.55 97 1007.9
20260506162207 7 298 3.2 4.8 0.00 0.81 1.55 97 1007.9
20260506162107 7 340 3.2 3.2 0.00 0.81 1.55 97 1007.8
20260506162007 7 340 6.4 6.4 0.00 0.81 1.55 97 1007.8
20260506161858 7 316 8.0 9.7 0.00 0.81 1.55 97 1007.9
20260506161757 7 317 6.4 6.4 0.00 0.81 1.55 97 1007.7
20260506161657 7 333 4.8 4.8 0.00 0.81 1.55 97 1007.8
20260506161557 7 331 6.4 6.4 0.00 0.81 1.55 97 1007.8
20260506161458 7 330 4.8 6.4 0.00 0.81 1.55 97 1007.8
20260506161357 7 334 6.4 6.4 0.00 0.81 1.55 97 1007.8
20260506161257 7 314 4.8 4.8 0.00 0.81 1.55 97 1007.8
20260506161147 7 316 4.8 4.8 0.00 0.81 1.55 97 1007.8
20260506161047 7 331 3.2 3.2 0.00 0.81 1.55 97 1007.8
20260506160947 7 331 4.8 6.4 0.00 0.81 1.55 97 1007.8
20260506160847 7 329 4.8 4.8 0.00 0.81 1.55 97 1007.8
20260506160748 7 319 4.8 6.4 0.00 0.81 1.55 97 1007.8
20260506160647 7 327 6.4 6.4 0.00 0.81 1.55 97 1007.8
20260506160551 7 306 8.0 9.7 0.00 0.81 1.55 97 1007.8
20260506160437 7 322 8.0 8.0 0.00 0.81 1.55 97 1007.8
20260506160338 7 317 4.8 4.8 0.00 0.81 1.55 97 1007.8
20260506160237 7 338 4.8 4.8 0.00 0.81 1.55 97 1007.8
20260506160137 7 342 1.6 3.2 0.00 0.81 1.55 97 1007.8
20260506160038 7 0.0 3.2 0.00 0.81 1.55 97 1007.7
20260506155937 7 0.0 0.0 0.00 0.81 1.55 97 1007.7
20260506155827 7 229 1.6 3.2 0.00 0.81 1.55 97 1007.8
20260506155727 7 323 8.0 8.0 0.00 0.81 1.55 97 1007.8
20260506155628 7 305 6.4 6.4 0.00 0.81 1.55 97 1007.8
20260506155527 7 331 1.6 3.2 0.00 0.81 1.55 97 1007.8
20260506155427 7 0.0 0.0 0.00 0.81 1.55 97 1007.7
20260506155327 7 308 1.6 3.2 0.00 0.81 1.55 97 1007.8
20260506155228 7 306 3.2 4.8 0.00 0.81 1.55 97 1007.7
20260506155127 7 333 8.0 8.0 0.00 0.81 1.55 97 1007.7
20260506155027 7 312 4.8 4.8 0.00 0.81 1.55 97 1007.7
20260506154927 7 313 6.4 6.4 0.00 0.81 1.55 97 1007.7
20260506154827 7 311 6.4 6.4 0.00 0.81 1.55 97 1007.7
20260506154727 7 299 3.2 3.2 0.00 0.81 1.55 97 1007.7
20260506154627 7 310 3.2 3.2 0.00 0.81 1.55 97 1007.7
20260506154528 7 319 4.8 4.8 0.00 0.81 1.55 97 1007.7
20260506154428 7 311 9.7 9.7 0.00 0.81 1.55 97 1007.7
20260506154327 7 312 8.0 8.0 0.00 0.81 1.55 97 1007.7
20260506154227 7 299 6.4 6.4 0.00 0.81 1.55 97 1007.7
20260506154128 7 320 4.8 4.8 0.00 0.81 1.55 97 1007.7
20260506154027 7 315 6.4 6.4 0.00 0.81 1.55 97 1007.7
20260506153927 7 331 8.0 8.0 0.00 0.81 1.55 97 1007.7
20260506153831 7 324 6.4 6.4 0.00 0.81 1.55 97 1007.8
20260506153717 7 318 6.4 6.4 0.00 0.81 1.55 97 1007.8
20260506153617 7 316 4.8 4.8 0.00 0.81 1.55 97 1007.8
20260506153517 7 315 8.0 8.0 0.00 0.81 1.55 97 1007.9
20260506153418 7 323 4.8 4.8 0.00 0.81 1.55 97 1007.8
20260506153322 7 332 9.7 12.9 0.00 0.81 1.55 97 1007.9
20260506153207 7 335 4.8 4.8 0.00 0.81 1.55 97 1007.8
20260506153107 7 314 4.8 4.8 0.00 0.81 1.55 97 1007.8
20260506153007 7 323 4.8 4.8 0.00 0.81 1.55 97 1007.8
20260506152907 7 330 6.4 8.0 0.00 0.81 1.55 97 1007.8
20260506152807 7 334 4.8 6.4 0.00 0.81 1.55 97 1007.8
20260506152707 7 304 6.4 6.4 0.00 0.81 1.55 97 1007.8
20260506152607 7 312 6.4 6.4 0.00 0.81 1.55 97 1007.8
20260506152507 7 323 4.8 4.8 0.00 0.81 1.55 97 1007.8
20260506152407 7 317 4.8 6.4 0.00 0.81 1.55 97 1007.8
20260506152308 7 314 1.6 3.2 0.00 0.81 1.55 97 1007.8
20260506152207 7 327 9.7 11.3 0.00 0.81 1.55 97 1007.7
20260506152107 7 321 3.2 4.8 0.00 0.81 1.55 97 1007.8
20260506152007 7 309 4.8 6.4 0.00 0.81 1.55 97 1007.7
20260506151908 7 355 4.8 6.4 0.00 0.81 1.55 97 1007.8
20260506151807 7 304 3.2 3.2 0.00 0.81 1.55 97 1007.8
20260506151707 7 314 9.7 9.7 0.00 0.81 1.55 97 1007.7
20260506151607 7 314 6.4 6.4 0.00 0.81 1.55 97 1007.8
20260506151507 7 326 6.4 6.4 0.00 0.81 1.55 97 1007.7
20260506151407 7 306 4.8 4.8 0.00 0.81 1.55 97 1007.7
20260506151307 7 297 4.8 4.8 0.00 0.81 1.55 97 1007.8
20260506151208 7 302 3.2 3.2 0.00 0.81 1.55 97 1007.7
20260506151107 7 316 6.4 6.4 0.00 0.81 1.55 97 1007.7
20260506151008 7 317 4.8 4.8 0.00 0.81 1.55 97 1007.7
20260506150907 7 325 4.8 4.8 0.00 0.81 1.55 97 1007.7
20260506150808 7 329 4.8 4.8 0.00 0.81 1.55 97 1007.7
20260506150708 7 325 8.0 9.7 0.00 0.81 1.55 97 1007.7
20260506150607 7 303 3.2 3.2 0.00 0.81 1.55 97 1007.7
20260506150507 7 327 6.4 6.4 0.00 0.81 1.55 97 1007.7
20260506150407 7 304 9.7 11.3 0.00 0.81 1.55 97 1007.7
20260506150307 7 0.0 0.0 0.00 0.81 1.55 97 1007.8
20260506150207 7 306 1.6 1.6 0.00 0.81 1.55 97 1007.7
20260506150108 7 0.0 0.0 0.00 0.81 1.55 97 1007.7
20260506150007 7 0.0 0.0 0.00 0.81 1.55 97 1007.7
20260506145907 7 324 8.0 8.0 0.00 0.81 1.55 97 1007.7
20260506145807 7 307 6.4 8.0 0.00 0.81 1.55 97 1007.7
20260506145707 7 320 8.0 8.0 0.00 0.81 1.55 97 1007.7
20260506145607 7 321 1.6 1.6 0.00 0.81 1.55 97 1007.7
20260506145507 7 298 1.6 1.6 0.00 0.81 1.55 97 1007.7
20260506145407 7 338 6.4 6.4 0.00 0.81 1.55 97 1007.7
20260506145307 7 320 4.8 4.8 0.00 0.81 1.55 97 1007.7
20260506145207 7 326 6.4 9.7 0.00 0.81 1.55 97 1007.7
20260506145107 7 310 6.4 6.4 0.00 0.81 1.55 97 1007.7
20260506145008 7 308 9.7 11.3 0.00 0.81 1.55 97 1007.7
20260506144907 7 320 1.6 1.6 0.00 0.81 1.55 97 1007.7
20260506144807 7 321 9.7 9.7 0.00 0.81 1.55 97 1007.7
20260506144707 7 315 4.8 4.8 0.00 0.81 1.55 97 1007.7
20260506144608 7 323 1.6 1.6 0.00 0.81 1.55 97 1007.7
20260506144507 7 314 8.0 8.0 0.00 0.81 1.55 97 1007.6
20260506144407 7 306 3.2 3.2 0.00 0.81 1.55 97 1007.6
20260506144307 7 267 4.8 4.8 0.00 0.81 1.55 97 1007.6
20260506144207 7 313 3.2 4.8 0.00 0.81 1.55 97 1007.6
20260506144107 7 313 4.8 4.8 0.00 0.81 1.55 97 1007.6
20260506144007 7 0.0 1.6 0.00 0.81 1.55 97 1007.6
20260506143908 7 307 4.8 4.8 0.00 0.81 1.55 97 1007.6
20260506143807 7 314 3.2 3.2 0.00 0.81 1.55 97 1007.6
20260506143707 7 320 3.2 3.2 0.00 0.81 1.55 97 1007.5
20260506143607 7 322 9.7 9.7 0.00 0.81 1.55 97 1007.6
20260506143507 7 306 6.4 8.0 0.00 0.81 1.55 97 1007.5
20260506143407 7 309 4.8 4.8 0.00 0.81 1.55 97 1007.5
20260506143307 7 331 4.8 6.4 0.00 0.81 1.55 97 1007.5
20260506143207 7 319 4.8 4.8 0.00 0.81 1.55 97 1007.5
20260506143107 7 307 8.0 9.7 0.00 0.81 1.55 97 1007.5
20260506143007 7 317 6.4 6.4 0.00 0.81 1.55 97 1007.5
20260506142907 7 325 3.2 3.2 0.00 0.81 1.55 97 1007.5
20260506142808 7 333 9.7 9.7 0.00 0.81 1.55 97 1007.4
20260506142707 7 321 8.0 9.7 0.00 0.81 1.55 97 1007.4
20260506142607 7 343 8.0 8.0 0.00 0.81 1.55 97 1007.5
20260506142507 7 314 3.2 4.8 0.00 0.81 1.55 97 1007.4
20260506142407 7 315 4.8 4.8 0.00 0.81 1.55 97 1007.5
20260506142307 7 312 1.6 1.6 0.00 0.81 1.55 97 1007.4
20260506142207 7 0.0 0.0 0.00 0.81 1.55 97 1007.5
20260506142107 7 309 6.4 6.4 0.00 0.81 1.55 97 1007.5
20260506142007 7 332 6.4 6.4 0.00 0.81 1.55 97 1007.5
20260506141907 7 339 3.2 3.2 0.00 0.81 1.55 97 1007.5
20260506141807 7 309 3.2 3.2 0.00 0.81 1.55 97 1007.5
20260506141707 7 316 4.8 4.8 0.00 0.81 1.55 97 1007.5
20260506141607 7 316 6.4 8.0 0.00 0.81 1.55 97 1007.5
20260506141507 7 284 4.8 4.8 0.00 0.81 1.55 97 1007.5
20260506141407 7 310 4.8 6.4 0.00 0.81 1.55 97 1007.5
20260506141307 7 324 6.4 6.4 0.00 0.81 1.55 97 1007.5
20260506141207 7 323 1.6 3.2 0.00 0.81 1.55 97 1007.5
20260506141107 7 329 3.2 4.8 0.00 0.81 1.55 97 1007.5
20260506141008 7 312 8.0 9.7 0.00 0.81 1.55 97 1007.5
20260506140907 7 313 4.8 4.8 0.00 0.81 1.55 97 1007.4
20260506140807 7 315 4.8 4.8 0.00 0.81 1.55 97 1007.5
20260506140707 7 314 6.4 6.4 0.00 0.81 1.55 97 1007.5
20260506140607 7 305 8.0 8.0 0.00 0.81 1.55 97 1007.4
20260506140507 7 310 3.2 4.8 0.00 0.81 1.55 97 1007.5
20260506140407 7 320 3.2 4.8 0.00 0.81 1.55 97 1007.5
20260506140307 7 306 4.8 4.8 0.00 0.81 1.55 97 1007.4
20260506140207 7 319 3.2 3.2 0.00 0.81 1.55 97 1007.5
20260506140107 8 329 12.9 12.9 0.00 0.81 1.55 97 1007.4
20260506140007 8 311 3.2 4.8 0.00 0.81 1.55 97 1007.5
20260506135907 8 330 8.0 8.0 0.00 0.81 1.55 97 1007.5
20260506135807 8 267 3.2 3.2 0.00 0.81 1.55 97 1007.5
20260506135707 8 315 1.6 1.6 0.00 0.81 1.55 97 1007.4
20260506135607 8 0.0 0.0 0.00 0.81 1.55 97 1007.4
20260506135508 8 0.0 0.0 0.00 0.81 1.55 97 1007.4
20260506135407 8 0.0 0.0 0.00 0.81 1.55 97 1007.4
20260506135307 8 318 6.4 8.0 0.00 0.81 1.55 97 1007.4
20260506135207 8 315 6.4 8.0 0.00 0.81 1.55 97 1007.4
20260506135107 8 0.0 0.0 0.00 0.81 1.55 97 1007.4
20260506135007 8 0.0 0.0 0.00 0.81 1.55 97 1007.4
20260506134907 8 0.0 1.6 0.00 0.81 1.55 97 1007.4
20260506134807 8 320 3.2 4.8 0.00 0.81 1.55 97 1007.4
20260506134707 8 0.0 0.0 0.00 0.81 1.55 97 1007.4
20260506134607 8 0.0 1.6 0.00 0.81 1.55 97 1007.4
20260506134507 8 0.0 0.0 0.00 0.81 1.55 97 1007.3
20260506134407 8 0.0 3.2 0.00 0.81 1.55 97 1007.4
20260506134307 8 313 4.8 4.8 0.00 0.81 1.55 97 1007.4
20260506134207 8 315 4.8 6.4 0.00 0.81 1.55 97 1007.4
20260506134107 8 329 4.8 4.8 0.00 0.81 1.55 97 1007.3
20260506134007 8 317 3.2 3.2 0.00 0.81 1.55 97 1007.4
20260506133907 8 317 3.2 4.8 0.00 0.81 1.55 97 1007.3
20260506133807 8 316 4.8 4.8 0.00 0.81 1.55 97 1007.4
20260506133707 8 0.0 0.0 0.00 0.81 1.52 97 1007.4
20260506133607 8 317 3.2 3.2 0.00 0.81 1.52 97 1007.3
20260506133507 8 319 4.8 4.8 0.00 0.81 1.52 97 1007.3
20260506133407 8 314 1.6 3.2 0.00 0.81 1.52 97 1007.3
20260506133308 8 0.0 0.0 0.00 0.81 1.52 97 1007.3
20260506133207 8 313 3.2 3.2 0.00 0.81 1.52 97 1007.3
20260506133107 8 0.0 0.0 0.00 0.81 1.52 97 1007.3
20260506133007 8 0.0 0.0 0.00 0.84 1.52 97 1007.3
20260506132908 8 0.0 0.0 0.00 0.84 1.52 97 1007.3
20260506132807 8 0.0 0.0 0.00 0.84 1.52 97 1007.3
20260506132707 8 315 3.2 4.8 0.00 0.84 1.52 97 1007.3
20260506132607 8 314 1.6 1.6 0.00 0.89 1.52 97 1007.3
20260506132507 8 313 4.8 4.8 0.00 0.99 1.52 97 1007.3
20260506132407 8 0.0 0.0 0.00 1.07 1.52 97 1007.3
20260506132307 8 0.0 0.0 0.00 1.07 1.52 97 1007.3
20260506132208 8 306 6.4 6.4 0.00 1.07 1.52 97 1007.3
20260506132107 8 0.0 0.0 0.00 1.07 1.52 97 1007.3
20260506132007 8 315 1.6 4.8 0.00 1.07 1.52 97 1007.4
20260506131907 8 313 1.6 1.6 0.00 1.07 1.52 97 1007.4
20260506131807 8 0.0 1.6 0.00 1.07 1.52 97 1007.3
20260506131707 8 0.0 0.0 0.00 1.07 1.52 97 1007.3
20260506131607 8 313 3.2 4.8 0.00 1.07 1.52 97 1007.3
20260506131507 8 315 6.4 6.4 0.00 1.07 1.52 97 1007.3
20260506131406 7 0.0 0.0 0.00 1.07 1.52 97 1007.3
20260506131307 7 315 3.2 3.2 0.00 1.07 1.52 97 1007.3
20260506131207 7 315 1.6 1.6 0.00 1.07 1.52 97 1007.3
20260506131108 7 316 1.6 1.6 0.00 1.07 1.52 97 1007.3
20260506131007 7 317 3.2 3.2 0.00 1.07 1.52 97 1007.3
20260506130907 7 0.0 0.0 0.00 1.07 1.52 97 1007.3
20260506130807 7 0.0 0.0 0.00 1.07 1.52 97 1007.2
20260506130707 7 0.0 0.0 0.00 1.07 1.52 97 1007.3
20260506130607 7 317 1.6 3.2 0.00 1.07 1.52 97 1007.3
20260506130507 7 312 6.4 6.4 0.00 1.07 1.52 97 1007.3
20260506130407 7 311 1.6 3.2 0.00 1.07 1.52 97 1007.3
20260506130307 7 315 3.2 4.8 0.00 1.07 1.52 97 1007.3
20260506130207 7 317 4.8 4.8 0.00 1.07 1.52 97 1007.3
20260506130107 7 324 1.6 1.6 0.00 1.07 1.52 97 1007.3
20260506130008 7 0.0 0.0 0.00 1.07 1.52 97 1007.3
20260506125907 7 0.0 3.2 0.00 1.07 1.52 97 1007.3
20260506125807 7 0.0 0.0 0.00 1.07 1.52 97 1007.2
20260506125707 7 0.0 0.0 0.00 1.07 1.52 97 1007.2
20260506125607 7 0.0 0.0 0.00 1.07 1.52 97 1007.2
20260506125507 7 332 1.6 3.2 0.00 1.07 1.52 97 1007.3
20260506125407 7 333 1.6 1.6 0.00 1.07 1.52 97 1007.2
20260506125307 7 327 6.4 6.4 0.00 1.07 1.52 97 1007.2
20260506125207 7 315 3.2 6.4 0.00 1.07 1.52 97 1007.2
20260506125107 7 313 8.0 8.0 0.00 1.07 1.52 97 1007.2
20260506125007 7 307 6.4 6.4 0.00 1.07 1.52 97 1007.2
20260506124907 7 318 3.2 4.8 0.00 1.07 1.52 97 1007.2
20260506124807 7 313 4.8 6.4 0.00 1.07 1.52 97 1007.2
20260506124707 7 318 4.8 4.8 0.00 1.07 1.52 97 1007.2
20260506124607 7 301 1.6 3.2 0.00 1.07 1.52 97 1007.2
20260506124508 7 325 4.8 4.8 0.00 1.07 1.52 97 1007.2
20260506124407 8 331 8.0 8.0 0.00 1.07 1.52 97 1007.2
20260506124307 8 339 6.4 6.4 0.00 1.07 1.52 97 1007.1
20260506124207 7 331 8.0 9.7 0.00 1.07 1.52 97 1007.1
20260506124107 8 325 6.4 8.0 0.00 1.07 1.52 97 1007.1
20260506124007 8 330 9.7 11.3 0.00 1.07 1.52 97 1007.1
20260506123906 8 333 4.8 6.4 0.00 1.07 1.52 97 1007.1
20260506123808 8 338 9.7 9.7 0.00 1.07 1.52 97 1007.1
20260506123707 7 321 6.4 6.4 0.00 1.07 1.52 97 1007.1
20260506123607 7 315 6.4 6.4 0.00 1.07 1.52 97 1007.1
20260506123507 7 307 8.0 8.0 0.00 1.07 1.52 97 1007.1
20260506123407 7 0.0 3.2 0.00 1.07 1.52 97 1007.1
20260506123307 7 311 1.6 1.6 0.00 1.07 1.52 97 1007.1
20260506123206 7 320 1.6 1.6 0.00 1.07 1.52 97 1007.0
20260506123107 7 0.0 3.2 0.00 1.07 1.52 97 1007.1
20260506123007 7 319 4.8 4.8 0.00 1.07 1.52 97 1007.0
20260506122906 7 313 6.4 6.4 0.00 1.07 1.52 97 1007.0
20260506122806 7 298 6.4 11.3 0.00 1.07 1.52 97 1007.0
20260506122708 7 322 6.4 6.4 0.00 1.07 1.52 97 1007.0
20260506122607 7 309 4.8 4.8 0.00 1.07 1.52 97 1007.1
20260506122507 7 306 4.8 4.8 0.00 1.07 1.52 97 1007.0
20260506122406 7 308 8.0 8.0 0.00 1.07 1.52 97 1007.1
20260506122307 7 315 4.8 6.4 0.00 1.07 1.52 97 1007.0
20260506122207 7 0.0 0.0 0.00 1.07 1.52 97 1007.0
20260506122107 7 313 1.6 3.2 0.00 1.07 1.52 97 1007.1
20260506122007 7 0.0 1.6 0.00 1.07 1.52 97 1007.1
20260506121907 7 319 3.2 4.8 0.00 1.07 1.52 97 1007.0
20260506121806 7 315 6.4 6.4 0.00 1.07 1.52 97 1007.0
20260506121707 7 309 3.2 3.2 0.00 1.07 1.52 97 1007.0
20260506121607 7 311 4.8 4.8 0.00 1.07 1.52 97 1007.0
20260506121507 7 315 1.6 3.2 0.00 1.07 1.52 97 1007.0
20260506121407 7 0.0 0.0 0.00 1.07 1.52 97 1007.0
20260506121307 7 0.0 0.0 0.00 1.07 1.52 97 1007.0
20260506121207 7 0.0 0.0 0.00 1.07 1.52 97 1007.0
20260506121107 7 0.0 1.6 0.00 1.07 1.52 97 1007.0
20260506121007 7 319 1.6 3.2 0.00 1.07 1.52 97 1007.0
20260506120906 7 325 3.2 3.2 0.00 1.07 1.52 97 1007.0
20260506120807 8 0.0 0.0 0.00 1.07 1.52 97 1007.0
20260506120707 8 0.0 0.0 0.00 1.07 1.52 97 1007.0
20260506120607 8 0.0 0.0 0.00 1.07 1.52 97 1007.0
20260506120508 8 0.0 0.0 0.00 1.07 1.52 97 1007.0
20260506120407 8 307 3.2 3.2 0.00 1.07 1.52 97 1007.0
20260506120306 8 0.0 1.6 0.00 1.07 1.52 97 1006.9
20260506120207 8 313 1.6 1.6 0.00 1.07 1.52 97 1006.9
20260506120107 8 0.0 0.0 0.00 1.07 1.52 97 1006.9
20260506120007 8 0.0 0.0 0.00 1.07 1.52 97 1006.9
20260506115907 8 317 3.2 4.8 0.00 1.07 1.52 97 1006.9
20260506115807 8 321 8.0 8.0 0.00 1.07 1.52 97 1006.9
20260506115707 8 334 1.6 3.2 0.00 1.07 1.52 97 1006.9
20260506115607 8 0.0 1.6 0.00 1.07 1.52 97 1006.8
20260506115507 8 301 4.8 4.8 0.00 1.07 1.52 97 1006.8
20260506115407 8 322 3.2 3.2 0.00 1.07 1.52 97 1006.8
20260506115307 8 316 3.2 9.7 0.00 1.07 1.52 97 1006.8
20260506115206 8 338 8.0 8.0 0.00 1.07 1.52 97 1006.8
20260506115106 8 315 3.2 3.2 0.00 1.07 1.52 97 1006.8
20260506115007 8 0.0 0.0 0.00 1.07 1.52 97 1006.7
20260506114906 8 0.0 0.0 0.00 1.07 1.52 97 1006.8
20260506114807 8 315 3.2 4.8 0.00 1.07 1.52 97 1006.8
20260506114707 8 299 8.0 9.7 0.00 1.07 1.52 97 1006.8
20260506114607 8 317 6.4 6.4 0.00 1.07 1.52 97 1006.7
20260506114507 8 0.0 1.6 0.00 1.07 1.52 97 1006.7
20260506114407 8 306 4.8 8.0 0.00 1.07 1.52 97 1006.7
20260506114308 8 325 4.8 4.8 0.00 1.07 1.52 97 1006.7
20260506114207 8 324 8.0 8.0 0.00 1.07 1.52 97 1006.7
20260506114107 8 308 4.8 4.8 0.00 1.07 1.52 97 1006.6
20260506114006 8 321 4.8 6.4 0.00 1.07 1.52 97 1006.6
20260506113908 8 307 9.7 9.7 0.00 1.07 1.52 97 1006.6
20260506113807 8 324 1.6 3.2 0.00 1.07 1.52 97 1006.6
20260506113706 8 332 6.4 6.4 0.00 1.07 1.52 97 1006.6
20260506113607 8 0.0 0.0 0.00 1.07 1.52 97 1006.6
20260506113506 8 312 1.6 1.6 0.00 1.07 1.52 97 1006.7
20260506113406 8 304 4.8 8.0 0.00 1.07 1.52 97 1006.7
20260506113306 8 0.0 0.0 0.00 1.07 1.52 97 1006.7
20260506113207 8 0.0 1.6 0.00 1.07 1.52 97 1006.7
20260506113106 8 297 6.4 6.4 0.00 1.07 1.52 97 1006.7
20260506113007 8 305 3.2 3.2 0.00 1.07 1.52 97 1006.7
20260506112907 8 0.0 1.6 0.00 1.07 1.52 97 1006.7
20260506112807 8 321 4.8 4.8 0.00 1.07 1.52 97 1006.7
20260506112707 8 296 4.8 6.4 0.00 1.07 1.52 97 1006.7
20260506112606 8 316 4.8 6.4 0.00 1.07 1.52 97 1006.7
20260506112507 8 315 4.8 6.4 0.00 1.07 1.52 97 1006.7
20260506112406 8 306 1.6 4.8 0.00 1.07 1.52 97 1006.7
20260506112307 8 0.0 0.0 0.00 1.07 1.52 97 1006.7
20260506112206 8 315 1.6 1.6 0.00 1.07 1.52 97 1006.7
20260506112108 8 0.0 0.0 0.00 1.07 1.52 97 1006.7
20260506112007 8 0.0 0.0 0.00 1.07 1.52 97 1006.7
20260506111907 8 318 4.8 4.8 0.00 1.07 1.52 97 1006.8
20260506111807 8 315 4.8 4.8 0.00 1.07 1.52 97 1006.7
20260506111707 8 336 1.6 1.6 0.00 1.07 1.52 97 1006.7
20260506111606 8 336 3.2 3.2 0.00 1.07 1.52 97 1006.8
20260506111506 8 0.0 0.0 0.00 1.07 1.52 97 1006.7